GFSSW_500_rhum_000.txt.gz
RH
2 2 2 2 2 2 2 1 2 2 1 1 1 1 1 2 2 2 1 2 10 27 50 62 67 77 83 88 76 58 96 97 89 93 10 4 3 3 7 8 8 9 10 23 39
2 2 2 2 2 2 2 2 2 2 2 2 1 1 1 1 1 2 1 1 8 19 53 61 63 72 82 70 63 44 100 100 55 66 12 6 3 2 4 6 8 10 12 11 15
3 3 3 1 1 2 2 2 2 2 2 2 2 1 1 1 1 1 2 0 4 12 37 48 54 64 72 66 56 42 98 64 43 26 20 4 4 2 2 4 6 7 11 14 14
4 4 3 2 2 1 1 3 2 2 2 2 2 2 2 1 1 1 2 2 0 9 12 37 46 65 68 66 58 49 38 37 36 24 13 3 1 3 2 4 5 7 6 12 15
4 4 4 3 2 2 2 1 2 3 2 2 2 2 2 2 1 1 1 2 1 3 11 34 39 55 48 71 76 52 40 41 31 17 8 4 2 3 4 3 4 5 4 9 15
5 4 4 4 3 3 2 2 1 2 3 3 2 2 1 2 2 1 1 2 2 1 9 11 48 46 46 68 78 62 34 38 19 7 6 5 5 5 5 4 4 3 2 8 14
6 6 4 4 4 4 3 4 2 1 1 2 3 2 1 2 2 2 1 2 2 1 3 12 41 45 41 65 79 69 25 29 12 5 6 5 4 5 5 5 4 3 6 4 7
8 7 6 5 5 5 5 4 4 2 2 2 1 1 2 2 1 2 2 1 2 2 2 5 20 43 44 42 55 60 43 54 9 7 5 9 34 7 9 6 4 4 4 8 4
10 9 8 8 6 5 5 4 4 3 3 3 2 2 1 1 2 2 2 1 2 2 1 3 8 27 40 47 55 53 75 80 22 8 9 14 60 47 46 39 9 4 4 4 6
12 10 9 9 9 7 6 6 5 4 4 4 3 3 2 2 1 2 2 2 1 2 2 2 4 10 21 28 25 78 63 86 70 16 21 20 49 50 41 46 34 5 3 4 5
13 12 10 10 10 9 8 7 5 5 6 5 4 4 3 2 2 1 2 2 2 1 2 2 2 4 12 16 30 81 87 86 82 76 70 69 62 54 45 36 25 8 4 5 6
16 14 12 12 12 12 11 8 7 5 6 6 5 4 4 4 3 2 1 2 2 2 2 2 2 8 20 25 28 66 81 82 83 84 82 87 72 66 59 50 33 34 37 10 10
13 16 16 13 13 13 13 11 10 8 6 7 5 5 5 4 4 3 2 1 2 3 2 2 3 9 12 14 25 38 70 85 94 79 86 90 78 64 66 68 55 64 64 61 33
16 15 15 14 15 15 16 16 13 10 8 7 6 5 5 4 4 4 2 2 1 2 3 2 2 3 8 8 16 29 34 88 90 94 84 71 92 83 80 52 48 58 67 75 78
20 20 20 21 18 16 17 18 16 14 10 8 6 5 5 4 5 5 4 3 2 2 2 2 1 2 4 4 12 16 59 51 84 94 98 100 92 90 67 64 58 64 61 62 64
28 25 26 24 23 24 22 19 18 16 12 10 8 7 6 5 5 5 5 4 4 3 3 3 3 2 3 8 16 23 64 68 72 86 87 91 95 74 83 47 65 75 68 67 64
30 29 28 30 30 27 28 25 23 16 16 15 12 10 9 7 6 5 6 6 5 3 3 3 2 3 2 6 29 27 46 52 74 79 81 90 91 44 81 68 50 69 67 72 82
34 34 32 32 35 33 31 32 23 20 20 21 19 16 14 10 8 7 6 6 6 4 2 3 3 3 2 4 18 19 24 64 70 67 72 87 77 35 18 52 49 56 65 72 78
38 40 39 42 43 43 36 29 27 27 27 28 25 22 18 14 10 8 7 7 6 4 4 4 3 4 3 3 16 26 34 51 69 69 61 58 54 12 32 48 51 55 66 71 72
49 49 48 48 51 51 45 34 31 32 31 34 29 26 23 20 13 11 10 8 6 5 5 6 6 5 4 4 7 37 31 56 67 70 70 67 69 69 33 45 57 57 58 60 61
56 63 59 55 56 56 49 47 46 41 44 39 35 31 27 25 19 17 13 10 8 8 8 9 7 17 7 4 3 13 60 50 71 72 66 71 66 68 25 43 63 70 59 62 64
52 54 61 74 72 64 56 61 57 50 49 51 44 36 33 30 25 22 17 11 9 11 10 11 14 10 6 5 4 31 37 65 64 55 72 66 56 61 65 23 40 60 67 65 53
12 35 63 73 75 87 86 80 72 62 59 61 57 48 42 35 30 26 20 13 9 11 22 30 17 58 15 28 19 23 42 53 65 70 66 73 65 62 62 19 26 43 42 44 38
9 23 69 90 100 98 98 82 84 78 72 69 65 58 50 42 38 29 21 16 14 17 21 18 43 16 41 25 33 21 5 36 53 64 62 63 70 69 57 9 21 35 46 43 54
23 57 78 100 100 100 100 100 99 98 86 86 71 64 60 53 46 34 21 22 28 24 38 32 26 81 26 28 68 61 48 22 32 40 62 60 65 68 71 19 3 20 49 56 52
36 57 100 100 100 100 100 100 98 98 96 98 87 77 70 59 50 34 22 22 42 45 40 55 55 47 78 72 79 73 66 50 41 11 40 56 59 61 64 21 9 10 41 54 51
47 57 71 98 100 100 100 97 99 96 99 100 96 86 74 66 52 43 28 23 39 44 34 50 67 55 86 94 84 80 71 67 48 28 21 26 12 19 29 34 8 6 21 51 52

GFSSW_500_rhum_003.txt.gz
RH
2 2 2 2 2 2 2 2 2 1 2 2 0 1 0 1 2 1 0 2 10 16 40 61 77 81 76 50 28 63 87 94 97 91 52 7 8 8 6 12 18 15 32 34 43
3 3 3 2 1 1 2 2 2 2 2 2 2 1 1 1 1 2 1 0 7 15 36 58 62 78 79 66 42 78 94 97 88 97 81 3 4 5 7 7 7 8 15 22 33
3 3 3 3 2 2 1 1 2 2 2 2 2 2 1 1 1 1 2 0 2 10 35 48 53 76 73 64 48 86 97 95 88 91 98 3 12 3 5 4 5 6 10 19 12
4 4 3 3 2 2 2 2 1 1 3 2 2 1 2 1 1 0 2 2 0 5 12 42 50 70 71 56 46 72 96 97 97 32 100 71 54 2 1 10 4 5 8 10 13
5 5 4 4 3 3 2 2 2 1 1 2 2 1 1 2 1 1 1 2 1 3 11 22 49 66 73 67 76 62 95 92 78 37 93 94 46 2 2 3 3 2 7 11 11
7 6 6 5 4 3 3 3 2 2 1 1 1 2 2 1 2 2 1 1 2 1 5 14 40 52 81 65 86 90 90 88 86 83 12 82 31 2 3 3 4 2 6 9 13
6 7 6 6 5 4 4 4 4 3 2 2 2 1 1 2 1 1 2 1 2 2 3 13 20 32 54 58 70 84 80 66 24 59 5 12 10 4 4 3 3 4 4 6 13
7 7 8 7 6 6 5 4 4 4 3 2 3 3 2 1 2 1 2 1 1 2 1 7 12 28 30 64 84 73 67 80 85 46 33 4 32 5 5 4 3 3 6 4 4
11 9 9 8 7 7 7 5 5 5 4 3 3 3 2 2 1 1 2 2 1 2 2 2 6 21 28 25 63 80 75 79 98 40 61 4 93 39 14 8 4 3 3 4 4
13 10 10 10 9 8 7 7 6 6 5 4 4 3 3 2 2 2 1 2 2 1 2 2 5 15 31 35 38 82 78 79 91 75 75 4 89 71 27 18 4 3 3 3 4
11 10 10 11 10 10 9 10 8 7 6 5 4 4 4 3 3 2 2 1 2 2 1 2 3 3 16 28 40 74 77 70 82 94 26 78 82 53 40 21 6 3 2 2 3
14 14 11 10 11 11 11 10 10 10 9 7 5 4 3 4 4 3 2 2 1 2 2 1 2 5 21 43 40 75 74 80 86 84 90 81 94 95 74 34 14 2 4 5 4
13 15 16 16 15 13 12 12 12 10 10 9 7 6 4 3 4 4 3 3 2 1 2 2 2 4 12 34 47 71 73 74 75 76 97 88 98 91 92 55 37 22 11 7 9
21 21 19 16 16 17 16 14 13 13 10 11 10 7 6 4 3 4 3 3 3 2 2 2 2 2 6 14 28 58 74 79 75 93 98 85 85 98 71 86 31 39 38 32 26
26 26 27 25 20 19 19 18 19 18 14 9 9 10 8 6 4 4 4 4 4 3 2 2 2 2 2 3 22 33 66 77 81 80 86 91 79 95 98 86 74 40 41 33 29
29 27 27 24 23 21 23 23 22 22 17 15 12 12 10 8 6 4 4 4 4 4 3 2 2 3 2 2 7 27 65 73 69 75 77 85 92 77 90 96 90 80 47 40 40
28 27 25 25 23 23 24 26 25 20 21 20 17 16 15 12 9 6 5 4 4 4 4 4 3 2 3 2 2 28 60 68 68 67 64 74 88 86 90 79 92 83 99 78 50
32 32 29 32 31 28 26 25 21 19 22 30 23 20 18 19 14 10 8 6 5 4 5 5 4 3 3 2 3 7 29 57 68 64 63 68 70 69 85 85 82 93 82 94 65
33 38 44 42 45 41 34 27 20 22 33 29 33 29 23 24 22 16 12 10 7 6 5 6 4 6 3 3 3 13 22 46 59 62 58 58 63 76 92 93 82 78 78 81 76
34 36 42 41 48 53 46 29 31 33 36 37 33 36 34 30 30 24 18 16 11 7 7 6 12 19 7 8 3 6 25 45 57 57 58 55 57 62 72 63 73 78 77 84 88
27 27 26 27 27 37 36 37 42 46 49 45 43 45 44 46 51 43 23 24 24 14 8 6 6 29 47 4 3 3 8 51 57 58 54 57 57 56 70 91 72 77 71 78 89
18 18 17 13 16 24 25 50 58 51 64 48 51 44 51 55 48 47 36 36 58 23 13 8 8 8 20 28 28 30 17 33 57 60 56 54 54 66 65 68 74 75 77 87 88
8 5 4 4 4 8 21 46 65 68 69 76 48 51 57 58 47 41 35 36 55 45 35 31 11 18 34 42 35 9 8 23 36 57 60 61 55 64 73 66 72 74 73 75 93
6 5 8 8 6 16 40 48 75 95 96 86 64 64 73 68 60 48 42 42 57 34 26 24 62 18 41 30 45 41 21 32 36 40 44 59 65 71 67 70 72 63 74 79 89
18 14 15 12 50 61 50 86 100 99 100 100 99 90 81 80 76 59 52 57 40 33 23 16 13 49 16 72 70 50 39 38 35 39 46 52 61 65 69 74 72 69 37 45 65
24 22 22 19 20 54 100 100 100 100 100 98 99 100 100 90 85 73 71 64 49 66 24 16 26 65 70 71 70 68 57 43 41 37 40 48 56 60 68 83 80 71 40 31 60
46 41 36 28 29 39 50 100 100 100 100 98 100 94 97 100 99 90 89 89 60 97 72 20 79 90 86 86 89 80 48 63 59 52 43 41 33 50 59 67 68 70 73 27 10

GFSSW_500_rhum_006.txt.gz
RH
3 3 3 2 1 1 1 2 2 2 2 2 1 0 0 1 1 2 1 2 7 8 24 49 42 37 49 29 60 98 100 97 98 98 68 13 6 7 6 13 28 86 37 41 36
3 3 3 3 2 2 2 1 1 2 2 2 2 2 1 1 1 2 1 0 5 9 18 41 51 39 55 54 66 96 87 95 95 73 92 27 7 5 5 6 10 7 20 21 42
3 3 3 3 3 2 2 2 1 1 2 2 2 2 2 1 1 1 2 0 2 7 14 29 47 47 52 35 75 92 98 84 83 64 93 92 12 4 4 4 5 4 7 8 14
4 4 4 4 3 3 2 2 2 2 1 1 2 2 1 2 1 1 1 2 0 4 7 17 38 48 62 50 58 99 81 77 97 87 78 86 44 7 5 26 4 3 5 8 12
5 6 6 5 5 4 3 3 3 2 2 1 1 2 2 1 2 1 1 1 2 1 8 20 32 44 58 57 63 91 94 87 100 68 64 98 51 22 7 3 3 2 2 8 10
6 6 6 6 5 5 4 4 3 4 3 2 2 1 1 2 1 2 1 1 1 1 4 16 40 48 54 55 63 84 86 92 90 87 46 95 85 17 2 3 3 1 2 6 9
7 6 6 6 7 6 5 5 4 4 3 3 2 2 2 1 1 1 1 1 1 2 1 9 43 42 48 49 51 86 87 85 73 69 91 59 96 11 5 3 3 2 3 4 10
11 9 7 7 7 7 7 7 5 4 4 3 3 3 3 2 2 1 2 2 1 1 2 2 21 27 34 58 45 69 79 81 84 83 49 14 96 7 4 4 3 5 4 3 8
11 11 10 8 8 8 7 7 6 5 4 4 3 3 3 3 2 2 1 2 2 1 2 2 4 14 17 39 46 50 76 77 82 96 95 15 93 96 37 5 4 2 3 3 3
12 10 9 9 9 9 8 8 7 6 6 5 4 4 3 3 3 3 2 1 2 2 1 2 2 5 13 19 24 49 76 73 74 65 81 77 18 29 41 54 18 3 2 2 2
12 11 11 12 12 11 10 10 9 8 7 6 5 5 4 3 3 3 3 2 1 2 2 1 2 2 5 15 20 59 77 69 83 91 98 98 76 14 62 35 25 3 2 2 2
16 14 11 11 12 14 13 11 11 9 9 8 7 6 6 4 4 3 3 3 2 1 2 2 1 2 4 16 29 34 77 74 83 89 98 97 83 41 67 65 38 10 2 2 2
24 25 21 18 17 16 14 14 13 10 8 10 8 8 7 5 5 4 3 4 3 2 2 1 2 2 3 9 22 25 71 74 77 92 89 90 90 98 97 59 49 24 2 3 3
28 26 26 25 22 21 20 20 16 14 11 10 10 9 9 8 6 6 4 3 3 3 2 2 2 2 2 5 14 22 37 70 74 86 79 78 75 87 92 64 34 26 12 3 3
24 25 27 26 25 25 24 24 20 18 14 14 10 10 11 10 9 7 6 4 3 4 3 3 2 2 2 2 6 19 51 59 72 86 88 93 82 95 92 96 85 41 26 22 9
26 25 23 26 30 25 25 24 22 20 13 18 13 13 13 14 11 9 8 5 4 3 3 4 3 2 2 4 6 19 64 62 64 74 87 90 90 63 98 61 90 97 88 40 30
28 26 26 26 26 26 29 26 23 18 19 17 17 14 17 17 16 13 10 6 5 4 3 4 4 3 2 4 13 15 54 60 57 62 64 74 89 51 94 96 75 93 95 83 43
24 21 24 26 25 23 26 27 24 20 21 26 27 17 14 18 19 18 13 11 7 5 4 4 4 4 5 2 10 11 40 35 55 58 59 55 64 72 89 91 81 86 94 98 65
23 24 29 28 30 28 28 22 16 25 32 32 40 38 30 19 27 24 18 15 13 9 6 6 4 6 7 10 4 7 25 15 53 55 59 56 58 59 63 85 72 77 96 97 95
16 16 21 20 20 23 23 18 20 25 34 49 46 45 40 48 40 46 27 18 15 14 10 8 9 22 11 10 4 3 12 23 41 53 51 51 53 67 60 62 76 78 81 96 80
16 14 13 12 12 12 11 11 15 25 37 41 41 40 41 56 56 59 46 36 29 23 18 14 10 18 41 8 10 14 5 14 36 38 49 51 56 57 58 63 67 66 52 72 69
6 6 6 8 9 10 10 12 15 16 33 48 61 51 43 51 59 60 62 54 48 51 43 31 24 10 17 48 27 15 5 4 20 28 38 47 49 56 66 62 70 68 62 38 31
4 3 5 4 4 7 8 8 10 12 18 58 83 65 71 70 57 53 57 56 55 54 47 48 44 32 16 40 55 38 21 22 14 20 44 44 40 44 59 68 92 78 64 68 87
3 4 11 20 10 10 10 8 8 11 19 65 100 100 85 77 72 58 58 58 58 59 61 58 56 42 24 16 51 56 22 15 19 24 12 50 53 44 53 63 85 88 75 76 72
20 22 32 21 26 93 98 34 10 7 53 93 100 100 100 94 82 73 64 64 65 66 65 67 48 58 42 48 66 61 56 50 43 8 24 9 52 63 49 65 80 75 72 64 45
37 38 38 41 38 42 99 100 80 23 94 100 94 100 98 85 98 82 72 71 72 70 70 64 51 47 66 62 68 73 64 49 45 23 6 16 37 38 56 50 72 88 86 73 63
46 46 44 56 50 38 34 94 100 100 99 100 100 100 98 100 99 89 80 73 64 73 77 79 54 56 34 36 79 78 68 64 55 41 41 36 14 40 44 57 60 84 92 81 84

GFSSW_500_rhum_012.txt.gz
RH
3 3 3 3 3 2 2 2 1 1 2 2 1 1 0 0 1 2 1 2 5 12 16 32 38 31 55 94 98 98 81 83 70 64 61 68 49 26 5 31 19 48 35 35 39
4 4 3 3 3 3 3 2 2 1 1 1 2 1 2 1 1 1 1 1 1 6 13 27 38 32 70 60 71 100 73 87 96 85 62 49 48 20 3 5 5 30 22 37 29
5 5 4 4 4 4 4 3 3 2 1 1 1 2 1 2 1 1 2 1 0 4 10 14 13 30 28 28 27 53 67 81 97 82 63 30 59 66 6 6 7 3 6 24 36
6 6 5 5 5 5 4 4 4 3 2 1 1 1 2 1 2 1 1 2 1 1 7 9 11 28 34 25 72 62 66 73 96 99 98 69 53 76 17 3 3 4 3 5 11
8 6 5 5 5 5 5 4 4 4 3 3 2 2 1 1 1 2 1 1 2 1 4 9 12 36 31 36 92 61 73 95 98 98 95 93 78 24 58 3 2 3 2 2 6
11 9 8 7 6 5 5 5 5 4 4 3 3 2 2 2 1 1 2 1 1 2 0 3 10 34 48 38 62 69 58 75 86 95 98 97 98 38 79 3 3 3 3 4 7
14 12 10 10 7 6 5 5 4 4 4 4 3 3 2 3 2 2 1 1 1 1 2 2 10 17 48 42 58 53 53 48 69 76 97 89 59 60 74 16 7 3 6 3 6
15 13 10 9 8 7 6 6 5 5 4 4 4 4 3 3 3 2 2 1 1 1 1 1 2 12 30 49 54 54 53 45 54 89 77 98 70 63 31 72 68 18 3 3 6
19 14 11 9 8 8 7 6 6 6 6 5 4 4 4 4 4 3 2 2 1 2 1 1 2 4 14 32 57 53 45 39 47 91 97 83 87 70 45 45 34 42 5 2 8
24 20 14 11 10 10 9 9 8 6 5 5 6 5 5 5 5 4 3 2 2 1 1 1 2 2 3 9 12 40 50 49 48 75 92 78 80 81 74 72 45 46 34 2 3
25 25 22 18 15 12 8 8 7 6 7 6 6 7 7 6 5 5 4 2 2 2 1 2 1 1 2 4 17 47 57 52 62 88 85 81 89 97 87 74 83 55 27 4 2
27 29 29 24 20 18 13 10 9 6 8 8 7 8 6 6 7 6 5 4 3 2 2 1 1 1 1 3 12 17 42 56 56 78 86 96 87 93 86 94 64 39 44 7 2
22 25 32 34 29 22 20 19 12 9 8 16 11 8 12 6 8 8 6 6 5 3 2 2 2 2 2 2 4 10 13 50 44 81 81 81 95 95 90 91 66 60 51 6 2
12 15 22 27 28 27 23 26 19 16 12 11 20 14 12 10 8 11 10 8 6 5 4 3 2 2 1 2 2 3 12 52 76 77 82 90 97 92 94 90 77 63 43 12 3
10 9 14 15 22 19 22 23 21 20 15 16 13 17 16 14 15 13 13 9 8 7 6 4 3 2 2 1 2 2 24 40 76 81 87 85 92 68 99 62 63 70 72 88 18
11 11 11 12 15 16 18 21 20 21 15 19 18 18 19 18 19 17 14 12 11 10 8 7 4 3 3 2 2 2 20 39 68 82 85 69 71 63 63 70 65 79 54 80 57
9 10 10 16 12 15 17 20 21 13 19 24 21 17 20 23 25 21 18 15 13 12 9 9 8 4 3 3 2 2 4 25 32 69 38 66 69 33 69 70 72 81 58 72 87
20 22 25 23 22 14 20 18 13 11 17 24 21 21 20 22 23 24 21 17 15 14 13 10 9 7 5 3 3 2 2 2 14 24 29 52 45 17 43 68 80 78 82 74 64
14 16 20 21 20 19 19 19 13 19 18 24 25 27 25 26 25 26 24 21 20 20 18 16 11 8 6 4 4 3 3 3 3 8 32 14 43 13 37 71 78 73 85 67 66
15 16 14 15 15 15 17 15 17 19 20 21 25 27 24 23 22 22 23 20 25 26 25 20 16 12 8 5 5 4 6 6 4 4 6 6 18 5 14 50 61 62 63 62 62
10 10 7 7 7 10 10 11 12 12 14 16 20 23 25 32 23 20 17 20 22 29 34 28 22 15 11 8 6 4 4 4 8 9 6 4 2 3 7 51 60 65 65 68 60
6 5 4 4 4 4 4 5 7 8 9 11 14 18 34 48 24 22 17 20 25 23 18 27 32 19 16 12 10 6 6 6 4 4 4 4 2 6 8 47 64 64 68 70 64
2 2 2 2 2 2 3 4 4 5 6 8 9 11 19 49 44 32 17 23 29 25 21 24 18 26 21 18 16 13 8 6 6 6 4 4 4 9 13 25 59 63 65 68 90
3 3 4 4 3 2 2 3 4 4 5 6 8 9 11 26 65 55 38 35 47 41 25 32 19 16 14 19 19 14 12 10 7 7 5 5 5 6 14 41 59 62 64 70 83
30 34 37 37 20 10 6 6 6 6 7 6 7 9 9 13 44 68 58 54 57 54 45 36 20 20 15 13 29 23 17 14 11 9 8 7 6 7 9 46 56 63 62 61 69
74 77 95 76 64 50 58 46 22 24 19 20 12 14 9 11 31 80 74 61 63 64 60 50 34 33 17 16 21 31 27 17 14 14 12 10 9 9 10 10 38 56 58 63 78
80 97 92 99 97 68 70 84 100 100 90 67 46 24 18 18 20 38 86 67 61 69 65 65 52 52 30 45 47 52 14 22 20 18 17 15 14 11 9 8 14 41 52 59 84

GFSSW_500_rhum_015.txt.gz
RH
4 4 3 3 3 3 3 2 2 1 1 1 2 1 1 0 1 2 1 2 5 11 16 22 46 40 31 58 88 94 75 83 68 64 56 51 28 8 13 37 46 51 51 54 62
4 4 4 3 3 4 4 3 2 2 1 1 1 2 2 1 0 1 2 1 1 5 13 23 33 41 32 44 79 94 88 86 70 56 43 69 65 60 33 7 7 25 41 44 44
5 5 5 4 4 4 4 4 3 3 2 1 1 1 2 2 1 1 1 2 1 1 10 26 15 23 31 23 44 98 89 76 65 53 45 51 33 35 44 8 4 6 17 38 34
6 5 5 5 5 5 5 5 4 4 3 2 2 1 1 2 1 1 1 1 2 1 2 7 9 17 32 30 31 46 78 77 73 54 52 47 25 56 61 5 3 4 3 10 35
10 8 6 5 5 5 5 4 5 4 4 3 3 2 1 1 2 1 2 1 1 2 1 6 8 15 30 39 37 84 80 62 58 70 71 49 30 57 95 14 6 2 3 3 10
14 13 10 8 7 6 5 5 5 5 5 4 3 2 2 2 2 1 2 2 1 1 2 1 7 13 46 42 43 95 76 58 68 68 63 54 31 61 32 28 13 4 6 4 8
16 14 12 10 9 8 6 5 5 5 5 5 4 3 2 2 3 2 1 2 2 1 1 1 6 12 44 42 66 66 79 60 63 78 33 65 41 41 50 80 99 45 4 4 8
23 21 14 10 10 8 6 5 5 5 5 5 4 4 3 3 3 3 2 2 1 2 1 1 2 10 29 37 48 50 75 66 57 58 61 25 54 67 62 66 90 84 5 4 7
27 26 21 15 9 8 6 6 5 5 6 6 6 5 4 4 4 4 3 2 2 2 1 1 1 3 19 27 34 46 43 61 56 47 52 32 56 73 81 79 77 39 38 4 8
26 26 24 21 15 9 7 7 7 7 7 6 7 6 5 5 5 5 4 3 2 2 1 1 1 1 3 6 9 25 42 66 62 57 57 55 61 86 96 98 92 54 32 6 4
24 22 22 21 22 16 11 8 7 7 8 8 8 8 7 6 7 6 5 4 3 2 2 1 1 1 1 3 16 33 44 61 62 63 59 54 63 67 90 96 100 65 49 8 3
17 18 18 19 20 17 17 16 12 8 9 8 8 10 8 6 7 7 6 6 5 3 3 2 1 2 1 3 8 21 23 50 67 71 60 66 68 73 81 95 100 60 41 16 3
8 9 14 16 19 21 17 16 15 14 11 17 9 9 14 5 10 8 8 7 6 5 4 2 2 2 2 1 4 8 9 47 68 76 75 80 57 56 69 94 85 80 76 13 3
6 7 8 10 10 14 16 15 14 14 13 14 21 13 10 12 9 12 10 10 8 7 5 4 2 2 2 2 2 4 7 46 69 86 87 65 52 45 59 71 58 72 37 21 7
3 4 6 7 11 7 8 11 13 15 13 16 13 18 17 16 15 19 16 12 10 11 7 5 4 3 2 2 2 2 13 40 63 81 80 72 48 38 43 43 58 73 50 96 68
5 4 4 4 8 7 9 8 9 11 8 17 13 14 18 18 17 17 18 16 13 11 9 7 6 4 3 2 2 2 15 31 63 76 68 46 45 42 41 41 66 61 46 70 91
21 15 12 9 8 5 10 10 11 8 10 14 12 16 19 21 19 18 18 17 15 13 11 9 8 7 5 3 2 2 4 17 30 57 6 40 40 18 56 51 66 62 70 67 79
22 25 27 16 18 12 19 11 8 5 10 9 12 17 19 23 23 22 18 16 18 17 15 12 12 10 9 7 4 2 2 2 2 7 8 21 17 5 47 57 66 77 85 80 64
18 21 23 21 21 21 19 18 10 12 10 13 23 24 19 19 22 22 21 22 24 25 21 18 14 13 10 9 5 4 3 2 3 4 6 4 7 7 32 47 71 81 79 74 73
11 11 16 16 16 17 17 20 18 19 18 18 24 24 23 24 23 22 23 21 23 22 24 22 18 18 16 11 7 5 6 4 3 3 3 2 2 2 13 31 52 71 60 60 53
5 5 6 7 7 8 12 14 18 18 18 19 20 21 26 30 28 26 25 20 22 23 22 18 17 18 19 14 10 7 6 6 5 4 3 2 2 2 3 25 36 68 63 68 59
1 2 2 2 3 3 5 7 10 13 13 16 16 18 20 28 30 29 30 24 19 19 24 22 17 14 16 19 13 10 7 6 6 5 5 3 3 3 3 8 26 46 66 53 61
5 5 3 2 2 2 2 3 4 5 5 9 13 14 16 21 32 41 29 35 23 22 25 23 21 19 15 19 17 13 10 8 6 6 5 5 4 5 6 9 8 25 53 42 56
18 17 16 10 8 5 3 3 3 3 4 4 6 10 12 14 20 35 41 38 35 28 28 26 23 20 17 20 18 14 13 12 10 8 7 6 5 5 8 8 6 11 52 58 64
31 38 43 37 37 27 19 9 4 4 5 6 5 5 7 10 15 23 33 45 47 37 38 36 26 24 19 19 20 16 14 13 10 9 8 7 7 7 6 8 8 13 36 48 38
40 49 65 74 86 84 63 52 28 24 16 31 18 8 6 8 9 19 38 53 71 63 57 46 39 35 22 21 25 20 15 11 10 12 12 11 9 8 8 7 9 8 23 37 23
68 82 74 83 99 89 99 86 76 100 97 99 73 67 67 14 10 10 30 62 76 76 71 62 50 42 28 32 27 26 15 16 14 13 14 12 10 10 11 9 8 7 6 11 26

GFSSW_500_rhum_021.txt.gz
RH
5 5 5 4 4 4 4 4 4 3 3 2 1 1 2 2 1 0 2 4 6 12 26 29 36 28 39 70 74 87 99 71 52 35 21 11 8 12 19 36 41 44 60 69 65
8 7 6 5 5 4 4 4 4 4 3 3 2 1 1 2 2 1 1 2 1 5 12 22 35 34 27 42 80 83 86 77 67 36 20 8 4 6 7 21 44 33 37 61 68
10 10 9 8 6 6 5 5 5 5 4 3 3 2 1 1 2 2 1 1 2 1 5 12 10 13 26 28 82 93 83 58 53 50 22 6 6 4 4 4 7 13 26 46 65
12 12 12 11 9 7 6 5 5 5 5 4 4 3 2 1 1 2 2 1 1 2 1 3 7 8 16 32 46 90 81 67 48 45 36 7 5 3 4 5 3 4 8 27 49
15 16 17 14 12 10 8 6 5 5 5 5 5 4 4 2 1 2 2 2 1 1 2 1 2 11 14 33 36 61 83 74 53 34 21 26 7 5 6 12 7 5 4 7 31
16 18 19 18 17 14 10 9 8 7 5 5 5 5 5 3 2 2 2 2 2 1 1 1 1 8 16 22 31 47 34 49 69 53 33 66 30 16 11 10 14 5 5 5 8
18 16 17 19 19 17 17 12 10 9 8 6 6 6 6 3 3 2 2 2 2 2 1 1 1 2 11 12 23 47 33 21 69 72 54 66 52 69 27 12 24 24 7 7 8
23 22 21 20 20 19 19 17 15 11 9 8 6 6 7 3 3 3 3 3 2 2 2 1 1 1 4 9 16 30 26 23 65 73 76 52 59 80 66 49 32 28 18 8 9
19 20 21 20 20 19 20 21 18 18 10 8 8 7 7 4 3 3 3 3 3 2 2 2 2 1 2 4 9 15 20 33 58 75 61 45 64 78 66 72 22 37 22 7 11
6 10 14 16 18 18 18 19 22 21 19 9 8 8 8 7 4 4 4 4 4 3 2 2 2 2 1 1 2 7 21 35 66 75 53 55 62 76 67 60 42 39 31 7 8
3 3 3 6 11 13 16 17 17 18 18 17 11 10 9 9 8 5 5 4 4 4 3 2 2 2 2 1 4 16 31 41 82 81 61 51 68 76 64 45 40 33 56 18 5
4 4 4 3 3 4 9 11 14 14 15 17 17 12 10 10 10 8 6 6 5 5 4 2 3 2 2 1 2 6 18 33 76 64 48 53 48 79 68 83 72 42 71 54 5
4 4 4 5 4 3 2 4 8 11 12 14 16 24 18 10 11 12 9 8 7 6 5 5 4 2 2 2 2 2 6 29 41 58 35 48 38 70 72 85 80 92 20 46 4
19 13 7 10 6 4 4 3 3 5 8 10 12 17 23 17 11 13 12 10 7 8 7 6 4 3 2 2 2 2 6 22 48 60 54 34 31 66 70 83 54 96 34 8 5
25 22 21 18 19 12 9 6 4 3 6 7 9 10 16 22 21 16 16 12 9 9 9 8 7 5 3 2 2 2 3 13 39 58 60 45 27 50 63 75 65 83 57 5 3
16 18 20 24 24 21 19 19 13 8 4 5 6 9 11 13 20 24 18 16 15 11 10 10 8 6 5 3 2 2 2 8 23 42 21 22 24 22 47 65 82 85 47 9 6
10 10 11 14 22 25 26 24 22 15 8 8 6 6 8 11 14 20 19 14 16 12 9 10 8 8 6 4 3 2 2 3 10 12 4 21 21 6 27 55 65 82 36 22 20
4 6 7 8 9 12 15 16 21 19 18 11 8 8 9 9 11 16 22 21 21 22 19 15 11 10 9 7 5 3 2 2 2 2 7 9 3 4 23 36 66 85 86 42 14
2 2 2 3 4 6 8 10 11 18 19 20 18 16 14 13 11 18 15 25 29 27 24 22 15 16 14 12 8 6 4 3 2 2 3 2 2 4 13 30 34 57 85 53 15
6 6 4 2 2 2 3 4 6 10 14 18 23 20 19 20 20 17 18 17 26 26 26 25 20 19 18 14 12 9 8 6 4 3 3 3 3 2 6 16 35 75 74 62 36
14 14 12 11 9 5 3 2 2 4 8 10 17 23 24 22 24 24 20 21 22 25 25 27 24 22 20 14 12 10 8 8 7 6 4 4 4 3 3 8 28 66 68 82 78
22 22 26 23 23 19 11 6 4 3 2 4 8 15 23 25 23 26 23 22 24 25 26 29 30 26 22 19 18 16 13 12 10 8 8 7 5 4 4 4 8 38 69 82 82
25 47 48 46 44 32 23 15 10 7 4 2 3 6 10 19 17 20 27 24 28 29 30 31 33 32 27 23 21 17 15 13 11 10 8 7 5 5 5 5 4 11 36 61 91
25 48 72 65 57 46 37 27 20 13 9 6 4 3 4 9 12 14 22 32 29 34 38 33 34 34 30 26 26 21 18 16 14 11 8 6 6 6 6 6 5 4 13 33 55
51 40 61 88 86 65 47 36 34 33 21 19 15 7 5 4 8 9 14 28 41 36 41 47 40 39 37 34 30 25 22 20 18 16 12 9 7 7 7 7 6 6 7 19 44
78 63 52 65 86 83 59 54 59 73 60 40 100 88 32 10 5 9 9 18 33 41 44 39 49 43 41 40 32 32 29 25 23 20 17 14 12 10 8 6 6 5 4 6 22
80 81 78 58 72 80 71 62 67 76 96 80 61 100 100 100 25 7 9 14 29 36 43 44 40 45 40 41 36 24 23 25 27 25 22 15 15 14 13 8 6 6 5 6 6

GFSSW_500_rhum_024.txt.gz
RH
6 6 5 5 5 5 4 4 4 4 4 3 2 2 1 2 1 1 2 5 11 32 30 27 32 36 63 90 90 91 68 62 55 48 22 9 20 30 15 31 36 49 71 69 64
9 9 8 7 6 6 5 5 4 4 4 4 3 2 2 2 2 1 1 2 2 9 25 36 30 34 56 79 89 99 82 74 57 34 23 10 6 6 16 32 45 45 66 69 62
13 12 11 11 10 9 8 6 5 5 4 5 4 3 3 2 2 2 1 1 2 4 8 14 11 26 28 81 83 91 82 82 68 51 29 10 6 4 5 37 45 32 46 69 59
15 14 13 13 15 14 11 9 7 6 5 5 5 5 4 3 2 2 2 1 1 2 1 6 10 11 28 36 88 92 87 64 60 52 37 9 7 4 3 4 5 17 33 56 62
17 16 15 15 18 18 17 14 10 8 6 5 5 5 5 4 3 2 2 2 1 1 1 1 4 14 17 35 40 93 81 63 55 51 34 12 6 4 4 3 4 3 9 34 57
19 18 16 15 17 18 20 19 16 12 9 8 6 6 6 4 4 3 2 2 2 1 1 2 1 4 15 32 34 67 83 77 61 44 27 32 9 9 8 4 4 4 3 10 34
20 19 19 18 17 17 19 22 21 18 14 11 9 7 6 4 5 4 2 2 2 2 1 1 1 2 9 19 30 36 58 77 73 55 41 65 44 55 29 9 6 4 3 3 8
8 14 17 18 18 18 18 20 21 23 21 17 12 9 8 4 5 4 2 2 2 2 2 1 1 1 2 6 17 31 24 28 52 76 68 73 98 87 57 31 9 8 7 7 6
4 3 4 6 11 15 17 18 18 18 19 21 18 10 9 6 5 5 4 2 3 3 2 2 1 1 1 2 9 15 19 26 33 75 88 93 88 85 64 54 15 15 8 9 8
4 4 4 4 3 4 8 13 17 17 19 19 21 16 10 8 6 5 6 3 3 3 3 2 2 2 1 1 2 7 16 22 32 66 76 77 73 81 71 66 30 9 9 10 12
4 4 4 4 4 4 3 3 8 13 17 18 18 18 14 10 8 6 6 5 4 4 4 3 2 2 2 1 2 6 12 27 38 58 84 75 78 69 66 63 58 12 9 9 9
17 13 10 5 4 4 4 4 3 3 8 12 15 16 18 14 10 8 6 6 4 4 5 4 2 2 2 2 1 2 10 23 43 50 75 83 79 78 73 59 58 18 20 8 8
17 22 22 22 20 11 5 4 4 4 3 5 10 13 15 17 16 10 8 9 7 5 6 5 4 3 2 2 1 2 7 20 34 60 68 80 71 77 81 64 60 44 31 20 8
17 17 18 18 18 19 17 11 6 4 4 4 5 8 12 13 15 14 11 10 9 7 7 7 5 3 3 2 2 1 4 20 32 49 48 74 72 64 63 75 63 59 41 38 8
10 14 14 16 15 15 19 17 18 11 10 5 6 5 9 12 16 20 19 11 9 11 9 7 7 6 4 3 2 2 2 8 27 35 50 48 38 50 59 67 62 57 91 44 12
4 5 5 8 11 14 13 18 18 23 19 7 7 8 7 9 11 14 23 19 18 15 10 10 10 8 6 4 2 2 2 3 10 32 30 16 20 20 38 48 68 61 67 40 16
2 1 1 2 3 5 9 10 13 18 19 16 9 9 10 8 9 11 15 18 17 13 9 11 8 9 7 5 3 2 2 2 5 7 4 15 15 8 32 46 68 66 73 33 26
9 6 4 2 1 1 2 4 7 10 19 19 16 13 15 13 9 12 14 16 20 24 23 18 13 10 9 6 5 2 2 2 2 3 4 5 5 7 20 40 61 74 79 44 9
21 14 10 5 4 4 2 2 3 5 9 19 22 22 22 21 14 12 14 17 20 25 27 20 19 13 12 10 8 5 4 2 4 3 5 5 3 5 11 28 49 70 72 40 12
31 23 17 9 10 11 10 8 5 2 4 7 9 17 18 22 24 17 15 13 18 31 37 27 25 19 18 14 12 10 7 5 3 4 2 2 2 2 7 18 33 56 57 50 24
48 29 25 16 17 21 28 20 13 6 3 4 4 8 12 16 22 25 20 14 20 31 22 32 29 28 24 14 13 12 10 7 6 4 4 4 6 3 4 13 30 45 58 54 64
58 45 37 26 34 42 43 37 24 16 7 4 4 4 6 11 17 23 25 20 18 15 21 36 32 34 24 26 20 17 16 12 7 6 5 5 21 4 3 6 23 35 46 65 79
69 55 54 44 38 60 53 44 32 22 15 9 6 5 5 7 13 19 22 26 27 21 30 28 35 40 35 32 26 21 18 14 12 9 7 7 7 6 6 4 8 28 47 58 52
81 64 69 62 41 50 60 73 57 31 21 16 12 8 8 12 14 15 22 27 30 28 24 27 32 37 35 34 33 26 20 18 15 11 8 8 9 6 6 6 4 12 42 59 64
86 70 74 74 60 44 56 68 78 52 30 20 35 34 11 16 29 30 19 24 29 31 36 35 33 31 40 33 29 25 25 22 17 15 12 11 9 8 8 6 7 4 8 59 68
95 79 56 72 74 50 57 82 65 69 66 66 57 100 100 15 27 62 24 23 27 28 36 46 47 31 35 38 32 27 25 22 21 19 17 14 12 11 10 8 7 6 5 6 31
100 94 45 58 80 52 55 60 61 62 86 89 79 100 100 100 25 36 32 79 27 33 32 40 45 32 42 44 40 32 27 27 25 22 21 18 18 18 16 15 12 8 7 4 6

GFSSW_500_rhum_027.txt.gz
RH
8 7 7 7 7 6 5 4 4 4 3 4 4 3 2 2 1 1 2 3 14 37 35 28 28 40 61 55 46 53 95 84 100 88 93 29 15 21 27 32 34 41 54 68 63
12 11 10 9 9 9 8 6 5 4 4 4 4 4 3 1 2 1 1 2 3 17 40 29 29 35 74 72 57 64 99 98 100 93 91 26 86 16 12 16 26 35 56 61 64
14 14 14 13 12 11 11 10 7 5 5 4 4 4 4 3 1 1 2 1 2 4 19 32 22 28 60 80 68 70 98 97 77 51 44 76 75 6 6 19 29 37 46 55 62
18 17 15 14 14 13 16 16 12 9 7 5 5 4 4 4 3 2 2 2 1 2 8 10 22 20 26 69 72 74 89 94 89 49 47 69 96 90 16 51 38 26 28 58 59
20 20 19 18 15 14 14 16 17 15 11 8 6 5 4 4 4 4 2 2 1 1 2 4 7 25 28 40 78 65 71 76 56 51 48 21 28 98 59 5 5 6 17 43 67
18 19 20 20 20 19 16 15 15 16 16 14 9 7 6 5 4 5 3 2 2 1 1 2 2 18 30 33 44 88 82 74 60 55 48 24 21 9 78 4 3 2 4 23 52
4 6 8 12 17 19 19 19 19 18 18 18 16 10 8 6 5 6 5 3 2 2 1 1 2 2 16 28 34 51 76 79 66 57 43 40 64 44 79 9 6 4 2 4 23
5 5 4 4 4 6 13 18 18 19 20 19 19 18 15 7 7 5 6 3 2 2 2 1 1 2 3 25 26 30 42 77 79 67 54 52 99 99 62 22 9 6 4 2 6
4 4 4 4 5 5 4 4 8 16 19 19 19 19 19 15 7 6 6 5 3 2 2 2 1 1 2 3 14 21 26 55 96 82 76 64 88 97 75 51 19 7 5 5 4
8 6 5 4 4 4 4 4 5 3 10 17 18 20 18 21 11 8 7 6 5 3 3 2 2 1 1 1 2 13 14 70 86 89 95 99 88 92 79 87 67 16 7 7 7
12 12 11 8 7 4 4 4 4 5 4 4 11 17 18 18 21 8 7 7 6 3 3 3 2 2 2 1 2 10 70 61 83 87 88 98 96 99 94 98 100 64 15 8 7
19 16 15 15 13 14 8 6 4 4 4 4 3 8 14 18 21 16 10 7 6 5 4 4 3 2 2 2 2 2 18 69 76 85 87 97 98 95 99 97 98 91 38 8 9
12 11 11 12 12 14 14 16 12 5 3 4 5 4 6 12 16 19 14 13 8 9 6 4 4 3 2 2 2 1 2 34 72 81 82 98 98 97 95 99 99 85 49 19 8
8 7 7 7 7 8 8 14 14 14 9 4 7 5 5 4 12 16 20 17 10 8 9 6 6 4 2 2 2 2 1 10 68 77 76 80 93 96 93 94 88 67 51 29 8
3 3 2 3 3 3 3 6 12 13 14 14 6 5 8 5 7 14 21 21 12 10 11 6 6 5 3 3 2 2 2 4 15 57 81 82 87 80 91 89 95 79 63 38 9
2 3 3 2 1 1 2 2 3 7 11 15 11 11 9 8 8 8 15 28 35 21 14 14 12 9 8 4 3 2 2 2 11 23 41 48 77 78 80 86 93 96 88 58 21
11 10 8 7 7 4 2 1 1 2 15 30 13 15 14 12 10 9 8 16 17 17 10 10 10 13 10 7 4 3 2 2 4 7 6 21 17 38 76 79 86 92 92 76 46
21 20 14 11 10 10 7 5 2 9 37 16 13 11 14 15 13 11 9 10 17 27 33 20 14 10 11 8 6 4 2 2 2 3 11 10 19 11 49 80 79 90 91 93 56
37 34 25 15 15 10 11 8 55 71 38 14 13 14 18 22 22 16 12 10 11 16 25 31 22 19 17 14 10 6 4 3 29 31 28 27 19 36 58 67 63 73 86 92 81
37 43 32 23 17 19 37 100 100 100 71 56 47 34 45 84 30 20 19 15 13 14 28 47 60 34 21 18 13 11 8 6 9 34 34 32 38 39 18 16 34 29 43 63 80
53 61 40 26 20 81 100 97 100 93 97 52 98 54 66 76 29 42 39 36 23 30 27 44 78 66 48 17 13 11 10 8 7 9 35 42 34 36 46 14 14 22 41 59 65
69 70 53 29 42 98 100 65 39 50 41 46 47 76 100 100 55 32 98 88 22 25 21 40 62 61 30 25 23 15 12 9 6 7 14 33 34 34 37 17 16 21 34 53 64
93 81 60 36 24 54 34 53 100 88 38 25 16 64 100 100 100 66 89 23 20 36 44 76 46 52 81 65 30 23 16 13 11 13 20 23 40 25 18 5 11 19 30 43 56
93 91 87 43 33 45 29 54 91 92 55 35 32 15 52 100 100 100 82 28 29 32 20 21 28 33 56 37 42 27 20 17 16 13 21 26 38 24 7 6 7 17 31 43 57
93 99 99 56 48 40 46 54 100 85 68 40 60 36 15 53 100 100 95 38 50 37 50 32 40 39 60 92 78 45 32 24 18 17 16 44 34 52 15 9 6 8 15 28 29
98 100 100 86 85 43 70 82 42 65 45 46 49 100 75 17 43 100 94 77 64 28 53 40 36 50 62 96 91 65 79 37 38 21 20 27 52 59 45 14 7 5 7 12 26
98 100 100 99 91 82 79 81 52 51 55 53 83 73 100 70 17 53 100 91 62 48 49 39 46 56 47 63 66 59 38 45 70 39 29 21 39 67 53 12 10 8 5 8 16

GFSSW_500_rhum_030.txt.gz
RH
10 10 10 9 8 8 7 6 5 4 4 3 3 3 3 1 2 1 1 3 8 32 36 38 38 33 53 58 76 92 97 86 82 99 98 86 42 19 41 41 28 36 38 45 58
12 13 13 13 12 11 9 8 8 7 5 4 4 3 4 3 1 2 1 1 2 12 33 30 26 25 45 60 56 70 92 92 64 83 93 56 100 30 17 16 9 20 25 41 61
14 14 15 15 14 13 12 11 10 10 9 5 4 4 4 4 3 1 2 1 1 3 12 30 21 18 32 59 61 58 91 88 94 86 79 84 50 54 9 7 6 17 26 42 57
18 17 16 16 15 15 14 12 12 14 13 10 6 4 4 4 4 3 2 2 1 1 4 10 21 18 20 55 73 76 93 95 78 74 93 99 97 98 96 98 18 28 32 34 53
12 15 18 19 19 18 16 14 13 14 15 14 12 7 5 4 4 4 3 2 2 1 1 4 9 26 18 42 66 78 70 81 87 50 71 62 42 96 53 10 3 21 20 11 43
4 4 4 5 8 13 19 18 16 15 15 15 15 12 8 6 3 5 4 3 1 2 1 2 5 12 31 28 34 78 96 99 97 98 79 39 40 15 42 25 3 3 3 9 30
4 4 5 5 5 4 4 5 16 18 17 17 17 15 13 14 5 5 5 4 3 2 2 1 2 3 17 24 26 82 92 90 91 96 94 92 99 57 93 91 18 4 3 2 12
4 4 4 4 4 4 5 5 4 4 13 18 17 17 17 17 9 7 7 5 5 3 2 2 1 2 3 26 24 28 53 67 77 90 76 63 85 100 74 56 27 22 6 3 3
6 5 5 4 4 4 4 4 4 5 5 4 11 17 19 21 16 13 8 6 5 4 2 2 2 1 2 6 15 18 20 20 82 77 66 66 79 100 72 97 37 27 21 6 3
13 11 8 7 5 5 4 3 3 4 4 4 6 5 16 23 21 17 15 10 6 5 3 2 2 2 1 2 2 8 14 21 45 98 79 84 89 75 92 88 74 31 28 31 8
16 16 15 13 12 11 11 8 5 4 3 4 4 4 5 12 21 22 18 15 8 5 4 2 2 2 2 1 2 11 28 26 88 73 99 72 93 66 78 95 98 47 69 27 24
11 10 9 10 11 11 10 10 10 9 4 5 4 3 4 4 9 19 19 15 12 6 6 3 2 2 2 2 1 2 7 70 77 85 84 96 56 92 92 96 90 75 96 44 25
7 6 5 5 5 5 6 8 9 8 6 6 7 4 8 5 4 8 19 22 20 11 8 5 3 3 2 2 2 2 2 19 79 75 88 96 94 95 75 86 96 71 44 40 26
3 3 2 2 2 2 2 2 2 5 6 5 9 11 10 6 5 5 8 19 25 15 11 8 6 4 3 2 2 2 2 3 80 76 68 76 81 69 73 96 68 85 90 96 27
3 4 4 4 4 5 3 2 1 1 2 9 6 8 12 8 9 8 7 10 18 20 14 8 6 4 4 3 2 2 3 2 33 77 73 73 73 76 75 65 88 59 56 57 22
6 6 8 10 9 12 9 6 4 2 2 40 27 9 11 13 14 12 11 8 20 38 26 16 14 8 5 4 3 3 5 10 4 61 64 66 73 72 85 68 81 79 77 52 54
7 8 13 16 17 19 14 13 15 4 11 72 24 6 8 11 17 18 13 9 9 19 22 24 15 13 8 9 5 3 3 18 27 8 15 42 72 62 76 90 93 96 88 93 64
7 10 13 32 35 30 23 28 13 24 100 50 30 24 8 14 18 24 20 12 10 17 38 22 17 12 10 7 7 4 3 2 4 7 21 20 14 9 69 92 86 98 96 96 73
12 12 21 46 39 33 34 26 29 82 96 80 84 100 75 87 32 83 25 14 11 12 19 33 24 25 18 14 12 10 4 5 14 32 36 33 21 21 34 57 88 84 89 97 82
13 19 30 46 48 43 47 63 57 100 88 100 92 100 100 100 70 73 54 60 24 14 21 29 67 35 30 28 17 12 18 10 16 31 36 33 32 28 25 24 64 72 84 93 86
25 55 46 71 83 67 98 82 57 85 83 100 99 99 98 100 85 53 67 93 100 99 31 36 63 66 65 34 18 20 32 19 12 10 40 43 33 34 39 39 46 50 49 88 83
42 58 68 73 78 80 100 38 78 84 65 88 91 88 100 100 100 100 95 95 94 89 67 33 48 71 80 64 46 26 18 15 11 11 31 39 40 37 38 40 41 38 55 65 92
60 72 86 90 90 87 58 25 52 91 86 62 55 77 93 99 100 100 100 98 80 86 100 99 48 63 85 84 70 36 26 23 28 17 13 33 39 41 38 54 46 16 71 68 74
78 88 92 100 99 94 73 47 51 89 81 100 64 22 46 99 100 98 99 98 94 97 68 73 42 67 65 53 70 69 61 45 40 17 25 26 44 43 42 37 36 12 17 31 45
84 99 97 95 96 87 80 86 98 88 82 83 58 49 22 68 97 99 98 99 100 79 71 77 58 66 82 84 86 65 44 42 20 29 19 44 45 50 40 28 32 14 18 45 54
86 95 100 91 74 79 80 85 71 61 61 38 40 50 51 60 100 99 99 100 98 86 86 56 54 80 91 87 96 89 72 45 56 39 59 48 50 50 54 16 17 8 8 13 19
94 100 100 77 78 59 82 69 43 50 60 45 65 64 44 100 87 97 100 100 98 100 93 69 89 87 60 88 94 99 89 75 64 59 61 47 54 56 56 53 22 9 7 8 9

GFSSW_500_rhum_033.txt.gz
RH
10 10 11 12 11 10 10 9 8 6 4 3 3 2 3 3 1 1 1 3 6 28 41 44 47 44 49 56 80 79 92 93 87 74 90 88 72 83 34 21 38 34 36 38 45
14 14 15 15 14 13 12 11 10 9 7 4 3 3 3 3 3 1 2 1 2 6 31 34 33 30 45 53 63 67 92 97 99 98 91 98 95 75 26 14 21 24 27 28 37
19 18 18 16 15 15 14 14 12 11 10 8 6 4 3 3 3 3 1 1 1 2 6 29 20 16 24 38 50 68 97 90 73 99 98 85 55 86 19 15 10 13 21 29 40
5 7 11 14 16 17 16 16 15 14 11 11 11 8 4 3 4 3 3 1 1 1 2 8 21 20 17 34 53 50 76 94 79 47 66 94 98 92 15 51 4 7 19 30 33
5 5 5 5 5 6 10 14 15 16 14 12 12 12 10 6 4 4 4 3 1 2 1 3 9 27 23 30 45 42 72 93 82 66 47 45 62 63 54 48 2 3 9 12 14
4 4 4 4 4 5 5 5 6 9 15 15 14 13 12 14 5 5 4 4 3 2 2 1 3 23 29 23 18 60 66 86 98 96 89 69 56 35 21 26 13 4 3 2 6
3 3 3 3 3 4 4 4 5 6 5 6 15 14 14 22 11 6 6 4 4 3 2 2 1 3 26 22 26 48 91 52 92 97 100 90 94 48 34 74 38 21 5 3 2
8 8 7 5 4 4 3 3 3 4 4 6 6 8 15 21 13 13 11 6 4 4 3 2 2 2 8 24 20 38 36 69 55 82 75 98 95 64 56 64 58 29 30 6 3
11 10 10 9 9 8 7 4 3 3 3 3 5 7 5 12 23 18 13 12 6 5 5 3 2 2 2 4 16 13 17 21 59 83 98 83 92 97 99 70 93 74 34 22 13
10 11 11 10 9 9 8 8 9 6 3 3 2 3 5 6 9 18 18 17 14 8 5 4 2 2 1 1 2 6 9 15 42 41 91 78 75 92 99 96 86 95 47 50 26
9 8 7 6 6 6 8 9 8 7 8 6 3 2 3 4 5 6 20 22 20 13 6 5 4 2 2 2 1 6 15 16 17 52 93 63 63 90 86 71 73 95 68 93 37
9 7 7 6 5 5 4 4 4 6 6 8 7 6 8 5 3 4 5 14 18 16 11 6 4 3 2 2 2 2 9 11 21 37 95 58 100 97 94 57 77 80 84 72 38
8 7 6 6 4 4 4 3 3 3 4 5 6 8 10 10 7 4 5 6 15 22 18 9 6 7 3 2 2 2 2 5 9 46 91 95 94 95 98 75 66 81 90 79 81
5 3 3 3 3 4 5 5 3 2 2 2 2 4 7 10 9 11 6 6 6 14 24 18 11 8 5 3 2 2 2 2 8 73 87 95 95 100 98 84 80 58 76 48 56
3 3 4 6 7 10 15 12 10 7 3 16 5 4 4 6 9 14 15 11 6 8 24 16 11 8 5 3 3 2 2 2 4 54 81 86 96 68 97 97 80 71 77 39 55
4 5 6 6 8 12 14 15 12 14 13 11 8 15 5 5 7 15 18 17 16 10 14 28 28 18 7 5 3 4 4 4 4 29 59 62 79 76 71 73 76 82 58 64 57
8 6 6 7 7 12 21 20 26 24 20 16 39 14 38 10 14 15 21 19 18 14 7 27 27 23 13 9 4 3 7 7 6 21 7 41 65 48 74 66 69 82 86 84 44
11 8 9 8 10 22 32 40 36 30 30 20 23 100 100 73 30 18 22 21 18 15 16 13 26 20 22 11 6 4 3 2 3 3 4 15 11 14 52 76 83 79 91 95 88
10 12 8 16 24 40 42 36 52 41 30 20 12 80 98 100 60 43 33 22 21 18 13 18 17 43 28 22 12 9 5 6 8 8 13 7 5 16 25 52 78 91 97 96 77
12 13 14 47 52 50 41 41 38 41 51 27 22 71 99 99 100 81 79 30 31 90 92 30 82 56 54 54 23 12 30 13 11 17 15 10 8 8 10 19 45 61 97 94 87
14 27 40 68 64 58 46 62 45 55 46 47 88 100 99 97 100 100 100 71 79 100 89 36 54 36 84 61 24 27 44 27 18 15 21 20 22 26 32 34 26 32 75 87 85
16 34 61 70 70 58 40 42 37 51 30 75 77 100 100 96 99 98 100 100 100 98 63 73 75 66 52 50 53 43 28 21 19 11 8 21 34 48 40 35 40 43 37 84 88
16 54 91 88 78 64 33 42 38 44 58 70 100 91 70 90 96 99 98 98 99 99 66 93 68 71 64 79 81 71 43 31 27 23 13 38 42 45 39 35 42 40 46 64 84
24 49 82 95 89 74 41 48 25 76 71 58 51 90 43 33 92 99 100 97 98 100 100 62 55 63 65 50 56 75 72 55 41 22 14 27 42 52 41 38 42 32 22 36 77
28 77 95 89 100 91 61 40 66 36 67 48 31 53 39 50 83 97 98 98 97 98 99 69 33 46 61 66 75 85 79 72 44 25 14 32 44 57 50 44 41 39 28 37 66
39 70 99 94 94 97 85 61 96 44 35 46 40 36 80 87 67 95 96 99 97 97 97 80 60 53 64 74 93 94 88 76 52 30 22 31 44 48 52 52 48 46 42 34 45
69 86 99 96 100 100 96 96 97 96 62 50 41 28 35 62 77 76 94 100 99 98 96 97 87 50 65 90 99 90 77 90 68 46 30 22 45 69 58 49 43 39 34 35 28

GFSSW_500_rhum_036.txt.gz
RH
10 9 8 8 9 9 10 10 9 8 6 4 3 3 3 3 2 1 1 3 6 26 38 43 47 45 55 56 70 73 79 76 95 95 93 88 82 79 79 56 56 51 45 36 43
13 14 13 12 11 11 10 10 10 10 9 6 5 3 3 3 4 2 1 1 4 8 33 40 45 47 47 46 66 80 94 80 88 97 92 97 97 90 55 20 42 34 21 26 41
6 6 7 9 11 12 12 12 12 12 11 10 7 6 4 3 4 3 2 2 1 2 6 28 24 24 31 38 51 68 70 76 96 81 74 95 94 93 39 16 13 14 21 35 45
5 5 6 6 6 6 7 9 11 12 12 12 12 8 9 6 5 3 4 2 2 1 2 14 22 25 17 30 45 68 76 63 70 94 100 78 50 48 53 12 3 18 28 42 51
3 3 3 4 4 4 5 6 6 7 9 12 13 12 10 13 7 4 4 4 3 2 1 2 15 34 25 22 28 51 75 72 60 40 43 76 51 51 60 10 3 4 22 28 42
3 3 3 3 3 3 3 3 4 4 6 7 8 12 13 16 11 8 4 4 4 3 2 1 3 30 38 26 17 65 72 76 60 44 60 48 53 45 42 47 15 5 4 7 25
6 6 6 5 4 4 3 3 2 3 3 4 6 6 9 21 14 8 13 6 5 5 3 2 1 3 32 27 31 45 63 53 54 66 90 69 41 52 60 79 54 30 8 4 9
10 9 8 8 7 7 7 6 4 3 3 2 3 4 5 7 16 16 16 15 7 6 5 2 2 2 12 22 30 18 25 21 47 90 88 95 76 44 47 67 58 40 21 8 5
12 11 10 8 8 8 8 7 6 6 6 4 3 2 4 5 5 10 15 17 13 7 6 5 3 2 2 7 26 17 8 12 23 81 98 66 96 42 49 55 70 59 37 22 9
8 7 8 10 8 8 7 7 6 6 6 6 6 4 3 3 5 5 8 18 18 14 8 6 5 3 2 2 2 6 5 7 20 48 62 80 94 77 41 32 55 79 67 35 24
10 9 10 9 9 8 7 6 6 5 5 4 5 5 7 6 3 4 5 12 23 15 12 9 6 4 3 2 2 11 8 7 18 40 50 91 99 97 62 33 50 59 87 76 32
11 11 11 11 10 9 8 8 6 4 4 4 4 4 6 5 4 5 5 6 9 20 19 13 5 6 5 3 2 3 6 5 36 29 40 84 94 88 43 40 54 79 44 78 65
16 12 10 8 6 6 5 4 4 4 4 4 4 3 4 5 6 10 12 7 6 12 21 18 14 12 8 4 2 2 2 4 12 44 37 94 95 99 63 76 81 83 60 83 83
12 7 5 3 3 4 6 8 8 5 3 3 3 3 3 4 6 10 11 17 7 6 16 25 29 19 14 10 3 2 2 4 12 36 28 85 99 91 96 80 62 90 74 67 79
6 3 5 3 4 8 8 7 10 9 9 7 6 6 5 6 4 6 10 11 16 7 7 10 22 21 12 8 7 3 3 3 6 33 35 62 86 93 78 71 50 71 72 58 67
3 6 6 5 6 6 7 10 12 13 18 16 13 10 10 8 14 7 8 9 12 19 7 8 24 36 20 16 10 5 4 3 6 43 66 49 60 73 56 58 52 82 43 58 64
5 8 7 7 7 7 11 20 26 23 17 13 11 13 14 14 51 26 9 9 14 16 10 12 14 26 37 27 17 8 6 5 12 49 35 23 69 28 42 64 74 71 35 48 61
6 8 8 11 8 14 34 33 22 17 14 17 18 16 13 13 35 75 20 14 12 16 21 21 20 23 48 31 23 12 6 3 3 7 8 8 28 15 56 70 76 67 65 73 68
8 8 11 12 19 35 44 37 21 18 17 18 20 21 18 16 16 98 59 60 34 21 18 26 11 34 52 37 32 26 7 6 5 7 4 6 9 28 45 49 38 58 85 76 66
8 10 12 19 31 43 48 44 35 26 26 28 30 47 34 25 14 99 98 97 100 54 20 22 16 34 43 79 38 14 14 9 7 7 7 4 4 4 28 21 30 43 55 33 61
7 10 13 27 51 60 64 64 46 31 38 28 32 41 48 36 20 96 100 100 100 100 32 26 14 20 94 75 39 23 23 19 23 10 8 4 2 4 11 25 40 49 48 44 63
9 11 13 34 73 83 78 79 66 40 46 22 44 57 99 82 75 88 100 99 98 99 99 40 17 24 54 34 66 62 24 34 21 10 8 6 11 17 25 23 28 46 69 36 55
9 11 24 62 80 88 89 88 89 59 58 27 58 86 80 70 74 99 98 100 98 97 100 90 30 23 35 76 99 89 49 21 14 22 9 8 20 24 35 36 39 34 67 41 73
9 12 68 81 74 76 82 99 95 90 79 47 31 53 58 37 67 95 95 100 99 98 99 87 31 24 30 64 72 66 64 45 27 19 11 7 41 41 44 37 35 36 37 53 51
11 51 82 83 89 87 88 94 100 98 97 96 56 38 46 30 54 75 94 99 100 100 97 75 47 31 30 48 71 57 76 57 39 20 15 10 37 44 43 39 37 40 34 42 54
43 69 91 90 83 94 100 100 100 100 100 99 100 60 43 50 57 45 87 98 99 100 96 89 86 30 27 67 76 68 59 67 62 30 24 16 38 57 45 45 42 42 38 38 33
70 92 93 98 92 92 100 99 100 100 100 100 100 84 57 39 57 47 82 99 100 100 93 83 84 42 76 93 90 84 84 78 73 58 40 27 39 62 64 60 50 49 46 44 42

GFSSW_500_rhum_042.txt.gz
RH
6 6 6 7 7 8 9 9 9 11 11 10 10 9 6 4 3 3 2 2 3 7 37 42 43 34 36 39 37 44 76 97 93 92 93 98 91 87 91 82 43 45 40 36 42
6 6 6 6 6 6 6 6 7 9 11 11 11 10 10 6 4 3 4 2 2 5 19 38 45 42 36 42 47 71 82 96 78 91 91 97 95 91 93 69 47 32 31 35 48
4 4 4 4 4 4 4 4 6 6 6 8 11 13 12 11 8 4 4 4 2 2 8 27 28 30 24 37 52 77 82 84 66 81 95 98 96 92 76 50 34 14 33 39 54
3 3 3 3 3 3 3 3 3 3 4 6 6 8 13 13 9 9 6 4 4 2 2 13 33 42 48 54 55 50 71 88 67 88 100 79 85 60 22 16 10 15 29 38 34
6 6 5 5 5 5 4 4 3 3 3 3 4 5 5 10 10 12 9 7 4 4 2 2 18 39 45 54 57 56 62 92 80 87 66 59 70 37 17 2 7 15 23 30 25
12 10 10 9 8 7 7 7 6 5 4 3 3 3 4 5 6 12 11 11 9 5 3 2 2 23 37 44 50 95 78 69 79 90 82 54 31 16 7 2 3 7 8 10 30
8 7 7 7 6 6 6 6 6 6 6 6 6 5 3 3 4 6 10 14 13 9 5 3 2 3 25 35 54 84 92 35 64 83 94 62 37 26 8 8 6 2 4 6 31
10 9 7 7 7 6 6 6 6 5 4 5 6 6 6 5 3 4 5 8 16 14 9 5 3 2 4 26 48 50 50 20 59 61 78 62 45 33 18 21 18 10 4 4 11
13 12 11 11 14 12 10 9 8 8 7 4 4 4 5 7 6 4 4 5 7 17 16 8 4 3 2 4 34 34 42 23 48 53 66 59 51 37 40 53 26 18 11 7 5
15 15 12 13 12 13 13 12 10 9 7 7 7 8 7 6 6 6 7 5 5 7 17 14 9 5 3 2 4 33 26 28 42 58 60 79 72 43 48 66 28 31 27 23 9
19 18 13 11 12 12 15 13 12 12 8 8 6 8 8 8 8 6 6 8 6 5 6 16 15 10 6 4 2 7 28 33 52 60 59 68 91 59 40 70 49 50 32 34 34
25 21 18 17 16 16 13 18 19 13 11 8 7 6 6 7 7 7 6 6 7 6 5 6 9 22 14 9 5 3 6 30 42 48 44 68 80 79 38 59 66 56 49 65 36
32 33 27 25 24 23 22 22 20 15 10 9 7 6 4 4 5 6 7 6 6 7 8 5 7 20 30 16 9 6 2 14 43 67 93 64 72 80 55 43 40 48 55 65 61
38 37 39 37 34 31 27 23 16 8 7 6 4 4 4 3 3 3 4 6 5 5 9 9 7 8 30 34 19 9 6 4 30 73 76 88 35 51 49 52 34 41 43 69 60
44 46 46 45 34 28 20 12 5 3 4 4 4 4 5 7 5 5 5 4 5 5 6 9 10 7 12 29 35 17 10 5 5 43 80 61 75 18 19 24 35 37 50 68 65
53 60 44 32 36 16 5 3 4 5 5 8 10 10 12 13 12 9 7 7 6 6 6 7 13 10 7 30 47 45 18 7 6 15 45 40 56 12 11 14 28 66 62 72 68
59 42 34 34 9 4 5 6 8 8 10 12 14 18 18 15 13 12 10 8 7 7 8 6 11 15 14 13 41 50 28 14 6 9 2 14 39 2 7 35 50 64 74 70 75
49 35 24 5 4 6 6 7 10 10 12 16 23 32 26 20 18 17 14 12 12 9 8 9 10 20 22 11 28 46 34 19 8 4 3 6 6 4 7 12 57 73 76 72 88
33 14 5 5 7 7 7 10 10 10 25 31 40 37 37 33 26 21 19 18 18 15 11 7 8 18 33 35 26 57 48 29 20 7 3 3 4 6 6 12 49 70 79 62 66
11 7 6 7 8 8 8 8 11 38 51 53 56 54 46 44 40 33 28 25 20 15 13 12 7 12 39 47 45 38 61 56 26 14 5 3 2 2 3 7 29 69 71 58 64
10 7 8 8 7 7 9 26 46 52 56 60 62 61 58 53 44 37 33 28 24 18 16 12 10 6 18 57 46 38 62 55 42 22 8 4 3 3 3 4 9 40 63 64 64
8 8 8 9 12 29 46 53 50 53 58 68 71 71 70 66 58 55 47 40 29 22 17 12 8 6 10 34 57 62 52 59 50 21 13 10 4 3 4 4 11 25 60 68 60
9 9 12 32 46 59 64 72 76 80 87 82 87 93 90 80 54 47 43 34 31 27 28 16 12 6 6 32 72 71 61 59 49 45 20 13 5 6 3 3 8 19 51 62 60
26 41 47 49 60 69 85 93 94 94 98 99 100 100 100 94 62 52 46 54 46 39 44 41 30 22 7 36 82 69 74 68 58 57 25 14 9 6 9 4 7 14 38 60 54
48 52 58 65 70 72 82 87 98 100 100 99 100 100 99 90 84 82 87 86 57 80 80 88 64 99 23 43 91 67 71 65 53 38 32 19 8 10 24 8 6 12 27 45 37
52 61 68 62 71 72 64 66 73 93 100 100 100 100 100 97 100 100 100 86 64 99 100 100 72 100 47 48 88 70 67 70 46 42 35 20 10 26 22 15 6 6 15 23 18
44 54 61 61 68 65 58 62 76 88 99 100 100 100 100 100 90 79 92 84 78 76 100 74 66 100 71 66 97 85 61 86 54 46 43 23 13 33 18 31 28 10 11 13 6

GFSSW_500_rhum_045.txt.gz
RH
6 6 6 6 6 6 6 6 8 9 9 10 9 10 8 7 3 3 3 2 5 7 29 39 37 24 28 33 36 36 44 66 98 95 96 99 98 97 95 93 82 57 34 34 33
5 5 4 4 5 5 5 6 6 6 6 7 11 10 11 9 7 3 3 3 2 3 11 31 41 37 28 34 43 46 56 74 80 88 95 94 88 88 93 86 63 42 26 24 35
4 4 4 4 4 4 4 4 4 4 4 6 6 8 9 11 10 7 5 4 3 2 4 20 30 36 29 36 43 49 75 74 77 73 91 91 95 91 95 93 56 36 14 22 34
4 5 4 4 4 4 4 3 3 3 3 3 4 5 6 7 11 12 8 6 4 3 2 4 21 39 49 58 56 56 79 62 48 54 83 84 87 87 96 87 51 18 18 22 32
10 10 9 8 8 7 7 6 5 5 4 4 3 3 4 5 6 9 10 10 8 4 3 2 13 28 43 58 56 59 72 59 76 87 90 69 78 92 75 26 14 11 17 28 25
10 8 7 7 6 6 6 6 6 6 6 6 6 6 3 3 4 5 6 12 12 9 5 3 2 17 33 47 48 50 53 57 77 82 81 62 68 49 19 4 9 5 10 24 28
10 10 11 10 9 7 7 6 5 4 4 4 5 6 6 5 4 4 4 6 12 14 10 5 3 3 21 37 42 40 42 62 85 82 84 66 77 37 13 2 4 4 3 10 31
14 12 12 13 13 12 11 10 8 7 6 6 6 4 4 6 5 6 5 4 6 9 16 12 6 2 2 23 42 39 24 33 69 85 89 90 58 20 7 8 4 3 3 13 22
18 15 13 13 14 13 12 12 10 9 9 8 7 6 6 4 4 6 6 6 4 5 6 14 12 6 3 3 25 43 23 26 58 86 86 97 73 44 28 18 14 7 4 5 18
23 20 17 17 17 15 12 11 12 10 10 10 10 8 6 7 6 5 7 6 6 5 4 6 13 15 6 3 2 25 40 24 31 60 81 90 84 64 40 27 25 12 7 4 12
28 26 24 23 22 23 19 17 15 12 10 12 14 12 9 7 6 6 7 8 7 6 6 4 6 13 22 9 4 5 24 36 37 52 71 99 84 67 58 40 36 20 20 11 4
35 32 28 24 22 25 27 25 19 17 13 14 14 14 13 10 8 6 6 8 7 7 6 6 4 8 24 15 8 4 6 24 54 33 45 73 73 92 70 59 48 26 30 26 14
42 39 34 30 27 26 27 31 28 29 23 16 14 15 14 13 9 7 6 6 7 7 7 6 6 6 11 26 16 8 3 12 58 52 39 54 78 73 86 74 42 38 29 26 31
42 40 40 39 37 38 38 37 36 34 25 19 17 14 12 10 9 7 5 5 4 6 7 7 6 7 6 16 29 17 8 4 37 62 60 52 48 67 80 83 44 44 46 45 43
43 44 44 47 44 44 40 38 31 26 15 14 13 11 9 7 6 5 4 4 4 3 5 7 7 6 7 8 30 33 16 7 9 51 63 42 29 51 77 78 66 52 51 60 59
45 50 57 58 53 48 39 24 10 10 8 8 8 6 5 8 8 6 4 4 5 4 4 5 7 7 7 12 12 48 34 17 8 8 46 35 30 15 38 72 88 73 54 70 65
42 53 63 56 42 24 7 4 6 5 6 6 7 8 9 10 12 13 12 10 9 8 7 6 5 7 11 13 16 31 46 35 18 7 2 11 24 4 28 40 59 60 67 73 69
52 65 49 38 14 5 5 6 6 5 6 8 9 8 7 7 8 11 11 12 13 13 11 7 7 7 7 14 21 24 52 46 25 11 5 5 4 3 17 22 28 42 75 92 79
44 38 32 16 6 5 6 7 6 7 8 8 8 13 22 27 21 19 22 22 21 18 16 11 8 8 9 14 25 25 24 47 50 21 10 5 4 5 12 38 30 47 80 94 84
13 18 20 8 6 6 6 6 7 7 9 19 36 35 31 32 36 43 39 35 33 26 20 16 11 9 9 10 20 38 30 59 63 38 13 9 5 3 5 16 28 58 75 94 95
6 6 6 7 7 9 13 21 32 44 52 51 49 50 47 46 50 52 51 49 46 39 29 22 19 13 12 11 10 24 61 53 60 45 26 16 8 4 3 8 34 53 75 89 84
14 13 14 16 31 42 47 48 48 50 57 62 65 69 73 72 72 73 74 70 58 50 42 35 24 20 12 10 12 11 31 45 70 45 35 28 13 7 4 4 18 48 90 89 90
38 38 44 48 53 57 57 59 62 62 65 64 74 88 94 92 91 95 100 91 72 58 51 43 36 26 14 11 11 10 13 45 39 43 51 39 18 9 5 3 8 22 76 83 87
42 39 46 51 54 54 55 56 56 60 66 76 87 99 100 100 100 98 100 100 73 51 40 34 31 27 22 18 17 16 11 23 57 60 39 46 37 16 7 4 3 11 56 74 77
34 37 41 38 36 38 42 43 48 56 64 94 100 100 100 100 100 100 100 99 70 49 38 32 23 21 18 12 14 11 10 11 46 44 38 42 39 26 15 8 6 6 18 62 70
33 33 34 31 30 31 32 32 31 54 96 100 100 100 100 86 97 96 90 83 72 70 62 39 35 32 18 16 12 10 7 10 41 34 26 35 43 32 18 11 6 5 17 41 68
37 37 35 38 35 30 32 29 42 81 100 99 91 88 97 98 91 89 82 82 80 64 54 54 80 92 63 60 45 11 6 9 33 38 30 27 40 35 21 18 6 5 9 28 45

GFSSW_500_rhum_048.txt.gz
RH
6 6 6 6 6 6 6 6 6 6 7 8 8 9 9 6 4 3 3 2 4 11 28 35 28 23 28 32 35 36 35 61 81 87 89 86 89 92 96 96 79 72 51 39 40
5 4 4 4 4 4 4 4 5 5 6 6 6 7 9 10 7 6 4 3 2 3 7 28 28 22 21 33 38 37 32 55 89 95 93 92 98 98 92 92 78 64 40 27 43
4 4 4 4 4 4 4 4 4 4 4 4 5 6 6 8 9 8 8 5 3 2 2 7 33 38 26 31 32 40 34 51 78 90 90 86 93 84 97 96 77 52 30 22 38
6 6 5 5 5 5 4 4 4 3 3 3 3 3 4 5 5 7 12 10 5 4 2 3 10 38 44 53 48 46 45 62 84 86 71 85 91 84 100 96 81 48 23 26 30
10 10 10 9 8 9 8 7 7 6 6 5 4 4 3 3 4 5 6 11 11 8 4 2 4 20 38 50 52 49 57 69 71 86 58 78 81 99 100 93 89 46 16 25 31
8 8 8 7 7 7 6 5 5 5 5 6 6 6 4 4 4 4 5 6 10 12 9 5 2 6 26 37 42 42 47 59 55 89 86 86 96 100 95 83 52 21 15 25 36
9 9 10 11 10 10 9 8 7 7 6 5 4 4 5 6 6 5 4 4 5 7 13 10 5 2 6 25 37 34 40 46 54 87 82 75 75 91 68 19 12 13 13 21 28
14 14 15 14 14 12 10 10 10 9 9 7 6 5 5 5 6 6 6 5 3 4 6 12 12 6 3 5 23 42 31 40 54 81 85 73 92 63 37 5 6 10 10 18 26
22 19 20 20 17 14 13 11 11 11 10 9 8 8 7 6 6 5 4 6 5 4 3 5 10 13 9 3 4 26 34 35 42 84 84 87 87 55 14 8 4 4 4 9 22
31 26 23 23 22 20 17 14 12 12 11 10 10 10 9 8 7 6 6 6 6 6 5 4 4 8 16 9 4 3 29 40 33 71 89 92 93 62 24 18 12 6 3 8 18
39 36 32 28 26 26 23 20 17 17 15 11 10 12 11 10 12 9 7 7 7 7 6 5 5 4 9 21 11 5 4 37 47 73 100 100 98 72 65 43 24 11 5 8 14
47 48 41 38 37 35 31 26 22 19 18 19 17 15 13 12 10 11 11 7 6 6 7 6 5 6 4 10 20 11 4 8 43 48 73 100 93 90 82 74 54 32 17 11 4
36 52 49 46 42 39 34 33 29 25 22 20 21 20 20 17 14 12 11 11 9 7 6 7 7 6 6 5 15 19 9 4 39 45 53 87 86 95 80 80 71 56 27 20 5
28 45 44 42 42 41 39 38 36 33 30 23 24 20 18 18 15 13 13 11 11 9 6 6 7 7 6 7 5 21 19 5 7 26 47 70 81 78 75 83 80 68 46 24 16
30 53 52 49 45 46 49 47 46 40 30 23 19 16 14 13 12 11 11 11 9 8 8 6 6 7 7 7 7 8 29 14 4 11 54 56 60 98 84 84 80 72 65 46 30
17 33 45 47 46 49 52 50 44 30 24 20 14 12 12 10 9 8 8 8 7 6 6 5 5 5 6 7 8 7 21 34 12 5 23 24 45 47 94 74 76 85 76 62 50
30 41 49 52 50 48 47 36 18 14 14 12 9 8 6 6 6 5 4 4 5 5 5 5 4 4 5 7 8 10 8 38 35 11 4 10 17 20 64 89 74 90 66 68 74
27 24 35 45 41 38 29 10 5 5 6 5 5 4 5 6 6 6 7 8 8 10 11 6 6 5 4 5 9 9 12 16 43 30 10 6 6 6 23 25 59 96 70 77 87
4 4 4 8 22 28 12 6 6 7 7 6 6 6 7 7 8 8 8 7 7 9 14 11 14 6 4 5 8 9 16 9 38 77 36 40 6 6 11 21 42 82 83 69 59
14 12 8 6 6 6 6 7 8 8 8 8 8 8 8 11 20 24 24 20 18 12 17 13 16 12 8 7 7 12 14 37 35 60 31 53 24 27 4 10 28 79 93 82 61
35 33 34 30 24 23 29 34 37 38 37 36 38 34 35 34 32 36 36 28 35 31 25 25 23 17 13 10 8 10 14 60 85 39 31 40 37 30 10 3 23 42 58 58 61
31 37 41 42 46 46 48 48 49 50 53 51 53 57 56 55 55 58 63 62 43 46 46 42 35 26 18 14 11 9 9 17 88 50 17 70 87 80 19 6 5 41 36 42 66
40 35 42 40 39 36 31 27 24 23 26 34 44 53 70 84 85 88 92 94 80 70 60 51 48 41 28 20 17 14 12 10 21 33 61 66 52 59 30 9 4 17 51 48 73
34 36 33 30 25 22 18 16 14 18 18 23 50 77 99 100 100 100 100 100 98 96 81 73 63 48 43 49 61 29 19 14 12 20 35 26 99 95 44 23 7 5 28 41 72
37 34 30 23 16 12 11 11 12 17 32 72 91 86 87 87 94 95 100 100 100 100 93 95 82 71 56 45 43 34 26 18 12 10 16 35 96 67 36 34 14 5 15 43 64
35 33 24 26 20 17 14 12 16 16 20 41 39 41 43 68 97 100 100 100 99 100 97 100 88 84 60 50 44 38 31 21 11 9 10 18 28 29 26 39 20 6 7 43 72
36 35 39 33 23 17 13 10 13 24 29 28 34 61 86 61 68 76 92 88 74 85 65 73 55 46 44 38 37 37 31 24 12 10 8 12 23 54 17 32 31 11 4 12 32

GFSSW_500_rhum_051.txt.gz
RH
6 6 6 6 6 6 5 5 5 5 6 6 6 8 7 5 5 4 3 3 6 15 25 23 16 14 32 34 32 30 42 60 98 100 95 90 83 84 90 96 91 69 62 51 44
5 5 4 4 4 4 4 4 4 4 4 5 5 6 7 6 6 7 4 3 2 4 11 30 20 14 18 33 32 31 39 90 97 81 89 84 86 92 83 84 76 64 49 37 42
4 4 4 4 4 3 3 3 3 3 3 3 3 4 5 6 6 8 9 5 3 2 3 7 29 36 18 21 31 29 38 40 52 75 79 83 82 98 94 84 83 58 46 36 35
4 4 5 5 5 4 4 4 3 3 3 3 3 3 3 4 4 5 10 9 7 4 2 2 7 33 43 39 38 33 39 43 40 69 78 77 79 72 74 93 89 70 47 32 25
10 10 10 9 9 8 8 7 7 6 6 5 4 3 4 3 3 4 5 8 11 8 4 3 2 9 38 44 35 34 41 43 61 74 73 62 84 94 91 77 94 73 47 23 25
9 9 9 8 8 7 6 6 6 6 6 6 6 6 5 5 4 3 3 5 6 10 10 6 3 2 10 38 34 27 34 41 64 66 64 68 76 89 93 96 84 86 53 21 28
9 9 10 11 12 10 9 9 8 7 7 6 5 4 5 5 6 5 4 4 4 5 9 12 7 4 2 7 36 38 32 37 54 63 76 75 93 99 95 90 84 58 43 18 27
21 18 16 14 13 14 14 11 10 9 9 10 8 7 6 5 5 5 6 4 4 4 4 6 13 9 4 3 5 29 41 38 43 54 85 74 82 60 83 58 21 10 15 18 31
31 29 29 28 24 21 20 18 13 11 10 10 11 9 8 6 5 5 5 6 5 4 4 4 6 12 13 6 3 6 28 44 48 43 71 66 97 82 55 32 6 6 10 13 22
34 32 33 33 34 32 27 22 20 17 13 11 10 11 10 9 8 7 6 6 5 5 5 5 4 5 12 15 7 3 6 39 48 41 69 63 93 97 57 19 34 7 6 9 13
44 44 44 45 42 38 34 33 28 22 20 17 15 15 12 12 12 9 9 7 6 6 4 5 5 4 4 11 20 16 19 22 76 74 47 75 96 97 65 18 42 10 4 5 18
19 20 27 36 42 47 43 38 35 33 29 24 20 18 18 15 12 13 11 10 8 7 8 6 4 6 6 5 15 19 10 20 64 84 42 75 88 90 95 50 48 26 11 6 8
20 20 18 18 28 36 46 49 44 39 35 30 28 23 21 20 18 17 14 13 11 10 7 7 6 8 8 6 5 13 21 7 16 55 45 48 89 63 98 63 55 47 33 27 14
13 13 13 13 16 32 38 40 44 41 42 36 32 28 27 27 24 21 21 16 14 12 11 8 7 7 8 6 6 6 26 21 6 16 31 60 71 88 48 90 60 56 57 49 21
14 13 13 13 14 19 34 43 46 47 38 36 32 32 29 26 21 20 21 20 17 14 11 10 8 7 6 7 8 6 14 28 20 6 5 63 80 98 62 74 73 58 59 54 38
32 34 26 22 22 31 37 46 52 45 45 38 36 32 28 24 20 17 16 15 15 15 13 10 11 8 7 6 7 9 10 12 23 18 6 7 73 87 97 89 94 64 61 56 52
26 21 23 28 38 48 53 54 43 36 40 31 30 24 19 18 16 15 13 12 12 12 12 10 9 9 8 6 6 7 9 11 26 27 16 6 12 46 95 82 98 90 60 58 58
7 7 6 4 4 14 47 43 36 46 44 26 10 10 10 11 10 10 8 7 6 7 10 23 10 8 7 7 8 6 8 23 28 41 9 13 12 6 58 96 93 97 63 64 50
25 25 22 14 5 4 17 27 49 22 7 5 5 7 6 4 5 5 6 7 5 5 5 28 45 13 8 6 6 28 36 8 60 70 52 44 22 13 22 52 69 97 78 96 51
31 27 30 31 28 12 7 7 6 7 7 7 7 7 8 7 6 6 8 7 6 6 6 14 9 24 10 6 5 6 13 57 50 80 76 67 53 42 30 11 41 44 41 47 97
32 33 31 37 40 42 44 40 42 39 40 39 39 34 29 23 18 16 17 15 12 10 11 11 7 24 8 5 6 6 5 21 96 86 75 78 62 60 55 46 12 18 49 46 64
34 28 34 34 31 30 25 22 18 17 19 20 26 40 50 55 51 45 48 59 22 21 30 37 20 15 9 9 9 9 66 33 50 59 86 70 68 74 72 70 43 18 12 41 64
35 30 27 17 14 12 12 12 11 10 11 14 22 32 55 76 79 78 83 92 42 36 51 39 29 32 20 13 9 7 8 11 54 82 94 89 76 89 94 81 66 22 5 30 57
34 26 22 20 18 16 12 10 9 9 9 7 8 11 31 61 85 100 100 100 91 93 78 57 51 41 34 80 64 50 23 20 50 90 88 100 96 93 99 98 98 44 20 17 67
32 31 33 26 18 14 11 10 9 8 8 10 17 28 26 38 52 99 100 100 94 92 79 86 79 68 46 62 65 41 22 18 16 16 90 90 94 89 97 97 99 73 27 8 31
41 42 33 27 19 13 12 10 10 10 18 18 18 31 52 73 66 34 94 100 93 92 88 91 83 90 68 71 72 58 42 25 17 12 11 39 80 91 96 90 86 64 86 14 9
51 46 36 29 19 17 13 14 17 22 32 28 24 29 42 56 66 63 34 84 81 91 95 88 90 100 84 87 84 78 61 47 31 19 11 10 12 54 74 86 95 50 54 14 7

GFSSW_500_rhum_054.txt.gz
RH
6 6 6 6 6 5 5 5 5 5 6 5 6 6 5 5 5 3 3 5 8 21 26 19 12 15 37 35 32 29 41 56 98 70 98 82 93 93 86 98 92 83 71 53 43
5 4 4 4 4 4 4 4 4 4 4 4 4 5 5 5 6 7 3 2 3 6 20 28 18 11 13 33 33 30 28 50 88 54 78 94 76 77 99 100 96 69 55 43 41
4 4 4 4 4 4 3 3 3 3 3 3 3 3 4 4 5 10 7 4 3 2 4 16 32 32 19 16 33 32 28 33 75 100 63 70 73 78 90 91 81 79 58 40 32
7 6 6 5 5 4 4 3 3 3 3 3 3 3 3 3 3 4 7 7 6 3 2 3 9 28 36 23 19 33 33 38 50 57 60 91 96 75 84 96 83 74 58 36 23
10 10 10 10 9 8 8 7 6 5 5 4 4 3 3 3 3 3 4 5 9 8 4 3 2 6 29 38 22 19 35 35 40 98 55 79 79 81 94 83 80 83 53 37 16
10 10 10 9 9 8 8 8 7 6 7 7 6 6 5 4 4 3 3 4 5 8 9 4 3 2 4 35 32 28 27 30 37 41 58 64 61 66 68 74 94 87 66 39 14
19 16 14 12 10 11 11 10 10 9 8 5 5 5 5 5 5 5 4 3 3 5 6 10 6 4 3 7 32 34 24 27 37 42 63 69 79 90 95 68 86 92 80 40 13
28 28 28 26 23 20 15 13 13 13 11 10 8 8 7 6 5 4 5 5 4 4 4 5 9 8 4 3 9 27 35 35 38 43 67 81 95 100 81 97 98 84 24 14 14
35 34 32 30 30 29 29 26 21 19 16 12 10 9 8 9 8 7 5 4 5 5 4 4 5 10 11 6 3 8 20 35 43 38 50 76 92 97 96 94 54 16 8 7 12
32 29 29 35 39 36 33 33 31 26 22 19 14 12 8 9 10 9 8 7 5 5 5 4 3 4 9 12 6 3 8 18 39 54 62 62 82 74 95 84 22 22 4 4 4
30 26 25 25 28 36 42 43 42 35 33 26 20 21 12 13 11 9 10 9 8 6 4 6 5 3 4 8 16 7 23 28 22 79 82 64 85 91 67 72 40 26 6 4 4
12 16 21 20 21 21 21 35 45 45 42 38 31 26 20 20 16 13 11 11 10 9 7 5 4 6 5 5 14 16 9 16 47 73 94 97 70 90 95 65 25 33 18 11 11
20 17 13 12 13 19 20 20 26 38 45 44 41 37 28 27 23 15 17 13 12 12 11 8 6 7 7 6 5 10 15 10 44 69 93 98 87 54 87 82 98 45 35 17 21
23 22 20 17 14 12 13 20 30 32 42 37 44 40 37 35 31 21 22 20 17 14 13 11 8 7 7 7 7 5 10 19 9 68 81 75 84 40 49 98 97 89 50 27 34
35 33 34 21 19 17 14 18 21 36 55 42 26 37 36 37 30 29 27 24 22 20 16 12 10 8 6 8 8 7 8 20 24 10 47 88 68 58 93 46 32 98 70 49 45
14 19 22 30 37 38 35 30 25 45 52 41 34 37 36 35 35 32 30 26 26 22 20 16 16 10 8 7 7 9 8 8 16 25 16 7 15 34 98 99 60 78 97 88 52
9 10 8 6 5 10 29 48 51 51 62 44 40 38 40 37 34 32 30 27 23 22 23 20 15 13 11 8 7 8 8 10 12 18 4 9 7 3 60 100 95 81 80 46 58
23 21 22 20 11 4 4 34 50 86 92 74 48 37 31 32 28 25 21 18 16 17 18 19 16 14 14 14 10 8 8 13 10 9 5 5 6 5 4 69 81 64 40 66 58
28 29 28 28 24 7 5 29 99 99 86 74 38 8 7 9 10 13 12 11 22 22 12 18 31 45 26 15 16 19 56 9 25 60 37 49 20 6 10 28 87 99 43 97 74
31 32 36 39 41 24 7 31 75 36 14 8 7 8 27 96 68 17 7 20 10 9 10 11 12 36 63 46 22 17 23 91 57 56 52 66 62 52 33 13 38 58 49 40 92
34 34 37 39 44 49 49 78 42 42 41 40 36 30 21 24 64 92 80 55 16 7 6 6 9 25 85 39 32 20 11 44 63 86 29 66 61 57 57 54 46 41 39 14 56
29 20 18 15 14 12 12 12 13 11 12 13 15 22 32 41 41 37 60 100 38 9 8 9 7 7 27 47 48 25 20 37 75 73 44 72 49 56 65 66 62 58 43 48 46
27 23 24 20 17 14 13 13 13 11 10 9 10 11 11 20 33 60 68 88 68 39 28 22 12 10 7 12 44 23 9 16 49 32 61 57 60 62 81 82 85 72 68 45 76
28 32 26 20 18 13 10 10 9 8 8 8 9 10 11 12 13 15 16 67 85 60 39 36 52 39 25 52 79 77 35 16 37 68 55 53 94 60 82 94 92 79 75 66 96
41 38 30 24 17 13 11 10 10 9 11 11 10 11 13 19 17 17 35 34 39 96 85 76 72 66 41 45 85 49 39 25 24 8 52 45 85 66 95 95 97 84 78 71 61
75 48 40 28 16 15 14 13 18 20 16 20 22 26 22 18 24 18 22 40 42 77 95 88 76 76 65 67 71 43 43 39 23 11 21 27 60 61 97 66 100 92 85 77 51
58 57 47 30 18 17 19 21 17 20 19 18 18 24 36 41 35 29 26 30 42 35 99 100 77 74 57 69 80 78 55 55 45 21 8 7 5 79 100 68 93 97 100 76 43

GFSSW_500_rhum_057.txt.gz
RH
4 4 4 4 4 4 5 5 4 5 5 5 5 5 4 5 4 3 3 6 20 23 18 15 21 36 40 36 32 30 41 64 92 65 87 97 95 88 90 95 73 68 78 64 38
3 4 4 4 4 4 4 4 4 4 4 4 4 4 5 4 6 5 3 3 6 13 26 29 20 12 22 36 33 28 26 36 64 98 97 79 73 79 82 80 80 74 62 45 29
4 4 4 3 3 3 3 3 3 3 3 3 3 3 3 4 4 8 4 3 2 4 8 23 29 22 13 13 35 32 28 25 96 95 74 98 97 90 88 84 78 77 70 42 30
9 8 8 7 6 5 4 4 3 3 3 3 3 3 3 3 3 4 5 5 4 3 3 6 19 28 30 18 14 34 32 28 32 78 51 81 97 96 83 94 84 81 59 35 28
9 10 10 9 9 9 8 8 7 6 5 4 4 3 2 3 3 3 4 4 6 5 3 2 4 11 21 34 14 22 34 32 53 46 86 88 69 73 98 83 86 83 65 40 24
23 18 12 10 10 9 8 8 8 8 7 7 7 6 5 3 4 3 3 3 4 6 6 3 3 2 5 19 30 20 23 36 33 36 56 59 82 78 91 79 81 84 77 45 20
30 24 24 24 18 13 10 9 9 8 8 8 7 6 6 6 5 4 4 3 3 4 6 8 4 3 2 5 20 27 16 16 30 37 54 65 64 72 69 70 65 74 86 62 12
34 34 39 30 27 27 22 17 12 12 12 11 10 9 5 6 5 5 6 5 4 3 4 5 7 5 3 2 5 20 29 28 31 36 56 65 63 62 88 95 95 79 77 56 15
23 34 38 38 35 34 32 30 27 21 15 13 14 12 9 8 8 7 5 6 6 5 4 4 5 7 7 4 3 6 19 31 43 39 44 65 83 78 86 96 94 62 11 16 16
9 9 23 38 34 34 39 40 34 29 27 23 19 18 12 10 10 9 9 6 6 6 6 4 4 4 6 8 5 3 7 21 40 38 37 52 78 87 91 81 80 40 8 7 10
12 12 10 11 27 28 23 24 36 39 35 31 28 24 18 15 14 11 11 10 8 7 6 6 4 3 5 8 12 7 3 12 21 83 63 45 71 66 94 92 83 59 33 7 8
9 14 14 16 12 14 20 19 20 25 44 44 37 34 26 24 18 16 14 12 11 9 7 6 4 6 4 5 11 12 7 4 12 51 81 89 91 100 71 87 87 81 32 6 6
3 15 20 22 21 15 12 14 18 22 23 39 49 43 36 31 28 19 19 16 13 12 10 8 7 7 8 6 5 10 11 9 8 52 68 78 84 84 72 85 85 97 49 36 13
2 3 19 31 29 22 19 15 13 18 27 29 43 51 41 44 39 25 27 24 20 16 13 10 9 8 6 6 6 6 10 19 11 20 59 82 96 100 76 94 90 96 85 48 26
4 4 6 23 33 36 25 21 19 19 42 37 29 46 45 49 40 37 31 29 26 23 18 14 13 11 8 6 7 6 9 13 22 15 13 48 84 96 94 93 83 66 94 49 35
11 10 11 8 8 20 42 42 31 49 60 39 36 44 44 43 42 38 37 36 33 28 23 20 16 12 10 8 7 7 10 6 9 20 12 12 45 55 88 74 63 76 71 74 48
32 21 25 24 20 5 7 40 56 52 77 52 41 38 43 46 42 39 37 37 35 31 29 27 23 18 14 10 9 8 8 9 7 8 3 13 23 11 22 46 50 72 82 90 63
32 31 32 32 29 11 6 37 67 96 97 85 71 52 59 44 40 38 37 36 34 31 30 27 25 22 19 16 10 9 10 9 6 4 4 11 11 7 14 46 70 77 88 92 82
34 31 34 34 38 8 18 29 100 90 100 97 97 66 46 27 21 24 25 28 17 22 25 25 25 24 22 21 24 22 13 11 10 7 14 13 8 9 17 37 64 48 59 66 72
31 33 42 43 46 10 26 46 36 54 82 90 71 44 28 66 97 52 22 25 22 19 20 20 22 29 40 32 21 28 29 44 22 12 10 7 5 14 58 56 50 34 26 39 82
22 22 23 35 49 35 24 34 38 41 38 45 30 23 17 14 34 50 88 64 17 14 15 16 18 32 47 37 51 30 20 30 34 17 14 18 5 10 70 78 71 61 56 51 59
25 25 18 17 20 21 20 30 14 12 40 28 38 38 39 37 36 28 36 40 30 17 8 10 11 16 34 39 32 41 38 35 40 34 20 18 5 34 75 83 69 65 57 55 55
29 33 23 20 18 14 14 11 15 11 9 12 15 14 13 12 18 26 35 49 27 27 22 29 12 7 17 60 71 39 58 52 55 31 26 46 6 58 74 87 92 78 70 71 73
43 34 26 24 18 13 11 10 10 9 10 8 8 9 11 14 16 17 15 11 12 8 9 18 35 38 8 33 78 63 44 42 63 67 32 62 16 51 74 90 97 81 57 70 67
66 44 44 30 19 16 14 13 14 15 14 15 14 16 21 21 26 24 20 15 16 18 14 12 11 38 46 32 26 48 63 45 24 28 23 30 25 45 73 88 95 97 71 64 78
61 58 51 39 21 18 20 22 19 20 20 19 22 19 18 19 22 39 27 22 24 30 27 21 18 17 29 62 53 37 20 30 15 12 18 17 19 57 70 91 97 97 98 94 96
65 62 65 57 57 25 18 18 19 20 25 23 17 14 13 14 26 38 37 33 35 40 35 31 33 59 26 53 68 65 39 33 21 9 12 11 12 38 64 66 88 95 98 98 98

GFSSW_500_rhum_060.txt.gz
RH
4 4 4 4 4 4 4 4 5 5 5 4 4 4 4 4 3 3 6 14 20 16 34 45 43 42 41 40 40 40 52 80 64 73 83 88 95 87 84 90 85 92 80 66 65
3 3 3 3 4 4 4 4 4 4 4 4 4 4 4 5 5 3 3 5 12 23 18 24 27 35 41 39 36 33 34 44 63 82 98 92 81 81 77 84 77 80 74 70 47
5 4 4 4 3 3 3 4 4 4 4 4 4 3 3 4 5 5 4 3 4 7 22 27 23 17 17 31 37 38 32 32 30 89 85 90 93 90 86 82 76 77 48 46 40
18 14 8 5 5 6 4 4 4 4 4 3 3 3 3 3 4 4 4 4 3 3 5 10 24 29 27 18 15 37 37 36 32 79 81 97 89 75 77 79 90 86 81 41 27
23 22 20 18 10 6 6 7 6 6 5 5 4 3 3 3 4 3 4 4 5 4 3 4 8 22 27 36 25 18 38 36 32 30 41 91 94 87 79 87 91 94 91 49 18
19 23 27 27 24 20 12 8 7 8 7 7 6 6 4 3 4 3 3 3 4 6 5 4 3 5 15 27 34 31 19 33 32 26 34 70 63 73 80 89 96 92 86 51 14
4 6 12 22 30 31 24 20 11 7 8 7 7 7 8 6 6 4 3 3 4 4 6 7 4 3 3 7 20 34 25 16 28 29 33 76 93 72 69 74 85 91 85 59 13
4 4 6 13 30 40 36 27 24 14 8 8 8 8 8 7 7 8 5 4 4 4 5 6 7 4 3 3 4 12 29 35 32 34 39 52 79 80 86 98 94 100 88 64 17
7 8 8 7 8 29 44 42 30 27 21 12 11 11 10 9 7 6 7 7 6 4 4 4 4 6 5 3 3 3 18 39 52 50 44 61 66 92 93 98 98 95 83 28 14
7 6 6 7 7 8 9 33 40 35 32 28 22 14 12 12 12 9 8 6 7 7 5 4 4 4 5 7 5 3 5 26 54 79 70 60 60 98 91 93 89 98 46 8 11
4 2 2 3 6 9 11 9 27 34 39 36 32 28 21 16 16 13 11 10 9 6 6 6 4 4 5 9 11 6 3 7 32 52 85 73 54 86 79 99 86 89 47 21 10
2 1 1 1 2 13 13 16 15 26 25 30 41 35 30 31 22 17 14 12 12 11 8 6 5 6 5 6 13 11 5 4 12 49 39 47 50 75 71 93 84 87 77 28 8
1 1 1 1 2 15 21 21 16 14 20 22 28 46 43 34 34 25 20 14 13 12 11 8 8 8 7 5 7 12 11 7 18 35 41 40 36 68 76 87 80 76 76 24 9
2 2 3 3 3 11 36 28 25 17 16 22 31 42 45 54 46 36 27 23 20 16 14 11 10 8 7 7 5 7 16 15 20 33 43 46 59 47 80 90 68 84 81 45 38
6 12 16 10 9 8 24 47 32 25 25 34 42 43 48 60 52 43 39 32 26 25 17 12 13 10 8 7 7 6 9 20 18 25 40 53 44 61 53 82 82 85 87 71 54
24 33 32 23 25 19 6 45 62 66 48 49 51 52 51 49 55 53 46 43 37 30 24 20 16 12 10 9 8 8 7 11 25 19 20 44 53 51 60 42 59 57 98 60 69
28 31 31 28 34 31 10 51 67 72 66 74 56 51 52 51 50 53 52 46 42 37 33 27 23 17 14 12 10 8 8 7 10 19 18 41 50 39 57 32 40 62 88 98 70
29 33 31 36 35 28 27 48 66 79 93 80 88 72 61 55 52 48 45 44 43 40 36 32 28 23 18 16 14 10 9 8 5 5 14 34 58 49 61 75 82 71 84 76 80
28 32 36 39 43 10 20 59 72 90 100 100 89 89 63 48 46 41 45 43 40 39 38 33 30 28 25 21 18 16 12 12 10 6 8 13 25 55 81 82 57 40 75 68 94
18 19 38 47 39 19 16 43 72 95 90 100 98 77 64 48 41 35 28 32 33 34 34 32 32 31 28 26 23 22 33 38 21 15 12 8 14 32 50 43 47 32 44 36 38
34 27 18 37 42 26 24 25 41 76 89 78 80 90 83 79 38 32 31 30 24 22 24 28 29 30 31 28 27 26 26 34 28 26 19 15 22 37 60 59 56 40 57 60 51
42 33 22 20 21 18 19 34 32 45 46 58 50 69 53 73 65 34 32 27 25 27 25 21 18 24 35 44 38 32 30 21 20 37 22 22 24 25 62 74 57 48 35 42 61
52 35 28 24 19 15 13 13 14 13 16 24 29 30 34 36 43 34 37 21 14 13 12 18 23 17 42 68 66 53 38 28 23 26 32 37 38 42 64 72 78 48 49 44 68
61 43 42 30 20 16 12 12 10 9 10 8 8 8 10 11 13 17 13 10 11 10 9 7 8 20 19 64 78 67 61 40 28 26 25 47 88 38 56 76 72 66 59 51 69
64 61 58 58 46 34 18 18 17 15 14 12 8 9 10 16 20 20 24 24 21 15 12 10 9 8 11 22 72 90 76 66 40 37 28 35 83 51 48 70 69 70 64 61 66
65 58 60 65 42 48 25 20 18 18 19 18 16 18 18 19 18 14 18 32 28 21 18 16 12 14 15 10 22 64 94 86 58 46 38 35 62 27 62 52 74 68 63 54 69
56 60 62 76 72 25 17 16 15 12 13 13 12 16 15 14 13 12 18 27 33 27 24 20 18 20 20 15 10 20 39 88 87 69 53 41 38 36 46 62 72 72 92 65 65

GFSSW_500_rhum_063.txt.gz
RH
3 3 3 4 4 4 5 4 5 5 5 4 4 4 4 4 3 3 7 16 12 16 37 47 50 48 47 49 48 53 64 64 67 72 71 84 87 95 97 97 91 98 93 77 68
8 5 4 3 3 3 4 4 4 4 4 4 4 4 5 5 5 3 3 7 16 14 16 33 47 48 45 43 42 41 52 49 62 72 60 79 72 91 95 91 75 91 99 83 55
16 17 15 9 5 4 3 3 4 4 4 4 4 4 4 5 5 5 4 4 6 17 18 14 27 47 42 42 45 41 38 48 44 63 84 74 66 76 87 85 76 89 88 69 38
15 15 15 16 17 14 6 5 3 3 4 4 4 4 4 4 4 5 5 5 4 5 13 23 24 28 28 21 29 46 48 33 34 54 81 62 71 79 82 81 73 76 71 64 34
8 9 9 11 11 12 16 14 6 5 3 4 4 4 4 4 4 4 4 5 6 4 4 6 20 25 27 34 25 23 36 39 33 46 69 65 68 92 87 81 92 91 79 59 39
5 4 4 4 5 9 10 13 17 12 6 5 5 5 4 4 4 4 4 4 5 7 6 4 3 12 23 27 41 32 14 17 35 34 33 38 68 88 92 99 97 97 84 54 36
4 3 3 3 3 6 12 18 19 20 18 7 7 8 8 6 6 4 4 4 5 6 10 6 4 3 10 20 30 32 24 19 17 34 35 36 51 81 98 84 96 96 90 57 37
3 4 4 4 4 5 5 11 29 32 26 19 8 8 8 8 9 8 6 4 4 5 6 7 7 4 3 5 15 21 22 28 32 21 34 43 88 85 99 91 88 92 96 76 46
4 4 5 6 6 6 6 5 6 30 36 28 18 9 8 8 9 9 9 7 6 5 4 5 8 10 5 3 3 7 19 30 45 26 35 45 80 83 86 85 99 91 93 86 71
6 6 6 6 6 5 6 6 6 7 26 39 35 19 10 11 10 11 9 8 9 8 5 4 5 8 12 9 5 4 7 30 50 37 30 44 61 79 82 94 97 93 86 32 50
5 5 4 4 3 4 4 3 6 7 8 32 39 37 28 18 14 12 12 11 8 8 8 7 5 5 9 15 14 8 6 20 42 44 31 27 53 78 70 88 86 100 92 26 18
4 3 2 1 1 1 1 2 2 5 11 14 36 39 38 36 29 20 16 14 12 10 8 7 7 7 5 9 16 14 7 7 28 39 40 34 37 46 71 74 83 90 89 70 16
2 2 2 2 2 2 2 2 7 18 23 18 25 31 38 41 38 32 23 17 14 14 12 8 8 9 8 6 9 16 14 7 33 38 27 34 36 33 44 60 69 81 80 69 14
2 2 4 6 5 6 6 4 12 39 31 20 30 36 30 44 46 40 33 28 18 15 14 13 11 9 9 8 6 9 23 17 27 23 34 22 30 39 48 72 78 68 70 65 11
3 4 6 27 30 12 12 8 33 52 46 45 39 48 50 62 57 52 47 38 30 21 15 14 15 11 8 9 8 11 20 36 73 39 31 31 17 27 42 64 68 57 77 75 20
7 20 28 27 29 24 23 10 64 78 84 65 55 64 72 59 62 62 58 52 40 31 20 16 16 14 12 10 9 15 10 20 32 43 28 30 21 24 23 36 55 49 58 59 60
24 28 29 28 31 34 27 25 91 100 88 81 79 76 71 66 70 71 65 57 52 40 30 27 23 18 15 14 11 9 12 12 16 24 24 34 37 30 36 25 42 42 32 52 58
22 24 28 40 38 33 21 41 79 95 88 86 81 77 68 66 63 64 62 61 53 48 38 30 26 24 19 16 15 11 10 9 9 10 24 34 47 46 39 40 35 54 48 71 74
27 17 31 47 44 33 15 54 89 96 94 86 73 75 69 64 65 57 54 51 52 50 44 38 35 26 24 20 18 16 13 12 10 12 14 32 44 54 55 42 39 53 18 78 95
31 30 18 30 42 21 23 95 98 92 92 94 80 73 69 65 59 52 51 48 45 45 47 43 39 36 29 26 23 21 21 19 14 14 12 13 32 42 54 48 38 32 16 47 94
49 33 24 18 19 24 24 69 95 98 93 90 82 76 74 73 49 47 39 36 35 40 40 40 40 38 35 32 30 28 27 23 24 18 18 22 19 17 25 42 48 27 19 12 35
57 40 30 23 19 18 32 47 72 100 98 87 96 87 83 85 59 21 23 26 29 33 31 29 32 33 40 36 34 31 34 30 30 32 27 32 20 20 22 26 29 26 23 16 28
64 46 39 26 17 13 12 11 15 14 36 57 43 42 48 46 39 22 21 20 23 26 28 34 29 26 47 49 38 36 35 38 40 44 40 35 25 17 21 24 32 32 31 20 15
67 58 61 62 42 28 19 15 13 10 10 10 12 14 18 22 20 16 14 11 9 9 9 10 19 29 34 64 62 62 50 42 42 57 56 33 28 21 14 23 53 40 34 34 48
66 62 59 57 56 46 37 19 14 14 14 12 8 8 9 9 10 10 11 11 14 14 12 10 8 8 14 37 67 64 73 61 55 59 60 44 29 33 21 17 26 62 39 29 36
51 48 48 65 62 58 50 49 22 11 10 10 12 10 9 10 11 14 12 12 12 14 11 8 9 10 8 7 24 68 79 86 72 65 53 40 40 48 39 28 23 22 46 38 37
10 12 14 16 16 15 15 13 12 10 10 10 11 10 10 13 14 16 16 13 12 20 21 16 13 15 16 11 11 11 42 84 95 84 62 54 45 31 48 46 36 29 37 54 51

GFSSW_500_rhum_069.txt.gz
RH
13 12 9 6 4 3 2 3 4 4 5 5 4 5 5 4 4 4 8 14 15 23 42 58 58 58 60 62 64 56 58 51 52 64 83 89 89 91 89 98 100 77 77 37 19
6 6 7 9 11 10 6 4 3 3 4 4 5 5 5 5 5 4 4 6 13 16 25 47 57 57 55 55 56 55 54 52 43 57 69 79 98 98 79 99 91 75 66 39 17
8 8 7 6 6 6 8 11 9 5 3 3 4 4 4 5 5 5 4 4 6 13 15 23 51 58 54 51 50 49 49 49 46 48 73 77 81 88 86 88 94 67 69 30 13
11 10 9 7 6 6 6 6 6 10 10 5 3 3 4 4 4 5 6 6 4 6 16 19 30 58 59 52 47 45 42 43 54 41 54 75 82 82 86 90 97 83 66 33 16
14 14 12 10 8 7 7 8 7 6 7 11 8 4 3 4 4 4 5 6 7 4 7 19 21 35 58 54 47 43 40 43 41 35 66 78 77 78 81 84 83 81 54 42 18
20 18 16 13 10 9 9 8 5 4 5 8 12 10 6 4 4 4 4 4 6 8 5 8 21 24 34 49 44 34 35 39 45 36 74 96 85 83 82 80 93 82 61 65 42
24 21 16 13 12 10 8 6 5 4 3 4 14 18 10 7 6 5 5 4 4 6 8 5 8 19 23 32 26 19 21 24 32 42 54 95 71 41 72 93 96 88 73 60 44
30 28 22 13 7 8 6 4 4 3 3 3 5 14 20 12 8 5 5 5 4 4 6 8 6 7 18 25 26 19 25 25 20 22 38 40 44 48 63 85 96 98 90 68 46
33 29 20 11 8 6 5 5 5 4 4 4 4 4 18 22 14 8 6 6 5 4 4 6 8 7 5 11 19 22 25 32 28 19 23 39 41 50 48 60 84 98 95 79 56
31 22 13 10 10 6 5 5 5 6 5 5 5 5 6 20 24 15 8 8 8 6 5 5 6 10 8 4 5 13 21 27 34 35 27 31 41 53 54 53 74 95 94 85 70
25 14 9 8 8 5 3 3 3 4 6 5 6 6 6 12 16 28 14 8 10 9 7 5 5 7 14 9 4 5 10 18 23 39 44 32 31 81 78 75 76 78 94 88 84
7 4 5 4 3 1 1 1 2 3 2 3 4 7 9 8 15 29 27 11 11 11 10 8 7 7 10 14 10 5 4 5 9 28 43 49 54 82 74 77 74 72 85 77 41
3 3 2 2 1 2 2 2 2 1 1 2 2 5 12 13 18 36 39 23 13 14 12 11 11 8 6 11 17 14 8 5 4 9 32 46 61 66 75 80 80 92 94 81 64
2 2 2 2 4 8 10 9 7 4 2 2 4 8 18 18 32 47 51 39 18 18 17 13 12 11 8 7 13 23 18 9 5 4 9 28 51 55 66 90 80 98 100 93 69
3 3 5 16 23 24 22 20 15 12 7 10 11 18 35 31 51 62 60 52 28 24 22 17 13 11 10 10 9 18 23 17 13 6 5 17 40 49 56 94 86 95 94 90 81
4 4 22 18 22 27 28 27 22 20 17 27 40 40 74 75 71 71 70 60 46 30 26 23 18 13 12 13 13 10 15 20 18 13 7 6 24 42 50 70 89 80 78 67 68
5 16 27 20 36 42 39 32 25 24 32 65 84 90 100 100 100 84 71 66 54 41 34 27 21 18 14 12 12 12 9 16 20 17 12 8 12 33 50 52 73 66 75 74 59
7 38 22 30 43 38 29 24 31 63 90 87 97 100 99 98 98 100 82 70 64 51 44 38 28 21 18 15 12 12 12 10 10 10 11 14 12 17 35 45 55 77 87 73 57
20 40 22 20 24 20 23 33 75 95 100 99 98 100 100 97 99 98 92 78 69 60 51 45 39 28 22 19 16 14 12 13 14 14 13 18 17 25 22 25 37 87 81 51 61
47 36 25 20 26 27 27 59 90 100 99 98 98 99 97 96 95 88 88 79 78 71 48 46 42 38 31 25 20 15 14 14 14 15 17 15 22 16 25 27 26 38 36 33 65
55 40 21 20 18 23 30 90 81 100 98 98 99 99 96 97 89 80 81 81 85 78 85 48 46 40 38 34 28 20 16 14 17 14 16 14 14 13 12 17 27 26 28 33 52
48 56 54 32 18 17 24 38 87 81 78 94 100 97 96 84 82 77 64 68 88 89 96 95 72 48 38 36 34 31 23 18 16 18 14 15 11 12 9 9 16 28 25 36 50
39 56 58 59 50 26 17 16 24 51 82 99 94 93 99 99 92 86 76 70 66 69 59 83 91 87 60 44 36 32 30 27 23 18 22 19 14 13 11 10 10 15 26 27 44
10 23 44 57 57 52 41 28 18 14 17 19 27 68 79 88 92 83 73 60 57 54 52 53 47 45 55 56 52 42 35 31 28 26 21 20 17 14 15 12 10 9 11 22 26
8 9 18 51 54 50 35 41 33 15 16 15 12 14 37 49 55 56 54 47 38 33 41 50 49 45 39 42 55 54 48 40 35 30 28 25 22 20 18 19 16 14 12 10 12
11 12 10 12 13 15 15 13 14 14 13 12 12 15 10 11 12 12 20 29 33 32 26 45 44 42 41 38 36 44 54 52 44 39 34 32 30 28 24 22 24 22 16 13 12
12 12 11 11 8 8 7 7 7 8 8 9 10 12 12 11 10 10 11 12 14 14 14 14 15 16 14 16 29 31 30 33 42 46 43 38 37 36 35 32 29 26 27 22 16

GFSSW_500_rhum_072.txt.gz
RH
6 6 6 7 7 7 4 3 3 4 4 4 4 4 4 4 3 4 10 15 19 34 48 57 57 59 53 54 56 60 60 58 61 66 97 97 89 93 89 82 73 59 45 22 17
7 6 6 6 6 6 6 7 6 3 3 4 4 4 4 5 4 4 5 9 16 20 42 54 57 57 60 63 53 54 70 54 57 59 84 89 95 88 99 82 68 62 50 30 16
9 9 8 7 6 6 6 6 6 7 8 4 3 4 4 5 5 5 4 4 7 15 17 42 59 57 55 55 54 51 65 50 55 60 79 90 94 95 84 93 79 59 42 33 19
13 12 11 10 8 7 6 6 6 6 6 7 7 3 4 4 4 4 5 5 4 6 15 20 46 61 58 53 51 51 49 48 55 53 71 82 92 91 96 97 91 66 47 26 18
19 17 15 14 13 10 7 7 6 7 7 7 6 8 5 3 4 4 4 5 6 4 8 16 21 54 61 55 50 46 44 44 46 42 38 83 100 99 96 89 88 73 59 30 17
18 18 18 18 16 14 10 6 6 7 7 8 7 7 9 6 4 4 4 4 5 6 4 9 19 21 48 53 51 47 43 45 43 38 38 87 100 95 86 83 91 80 62 44 21
19 19 20 20 17 13 11 8 7 6 6 5 6 7 9 9 7 5 4 4 4 5 6 4 11 20 19 35 45 48 40 38 44 42 50 92 81 68 70 90 96 95 68 61 36
41 34 31 33 31 20 12 8 6 5 4 4 4 5 8 12 10 8 5 4 4 4 5 6 5 11 20 19 34 43 35 28 33 45 48 87 88 70 46 82 90 99 82 60 44
39 40 41 38 35 27 17 11 7 5 4 4 4 4 5 8 14 12 8 6 5 5 5 5 6 6 9 21 24 30 30 30 23 27 42 45 68 68 49 44 70 97 98 78 52
37 36 32 27 24 19 18 15 9 7 5 4 4 5 5 6 10 17 13 8 7 7 6 5 5 8 6 8 18 24 30 29 33 26 20 32 40 41 44 60 72 86 97 88 63
30 20 12 10 9 8 8 7 6 6 5 5 5 5 6 6 8 14 21 15 9 7 6 7 5 6 9 8 6 11 19 29 31 41 36 23 29 38 43 60 75 86 90 94 75
8 6 6 7 7 7 6 6 6 4 3 4 5 5 5 6 8 9 24 27 14 10 8 8 7 6 6 9 7 5 5 15 27 34 45 40 24 32 40 68 90 92 97 95 82
3 2 2 2 2 1 1 1 1 1 2 3 3 4 4 7 8 13 31 38 25 13 11 11 10 7 6 6 10 9 4 6 17 26 36 46 41 44 100 78 94 82 97 99 80
2 2 2 2 2 2 2 2 2 2 3 4 3 2 3 4 10 10 26 48 38 21 14 13 11 10 6 6 8 15 9 4 5 9 27 39 100 58 71 83 100 97 97 95 83
2 3 3 3 5 8 13 14 11 11 19 6 6 8 7 10 17 16 25 49 47 33 21 15 13 11 9 7 10 21 17 10 4 4 9 24 61 68 68 93 93 99 94 83 90
4 4 8 23 18 20 25 26 23 25 19 10 9 14 16 24 27 30 40 46 55 42 30 21 16 13 13 10 8 7 16 16 12 9 5 20 43 74 48 74 100 96 95 93 90
5 8 31 21 27 35 36 36 36 33 23 21 16 38 66 72 54 49 54 67 60 50 36 24 21 15 14 14 11 7 8 16 20 16 26 39 20 65 46 64 97 98 93 88 76
10 37 25 19 27 43 39 32 25 33 35 42 49 92 90 91 97 80 70 73 69 54 58 33 22 20 14 14 12 10 9 47 37 34 58 18 20 23 33 63 70 96 92 93 89
38 39 27 22 24 20 20 33 46 67 91 90 95 100 96 100 97 94 87 76 70 61 59 39 36 21 17 14 12 13 12 63 61 70 66 24 12 6 16 48 65 62 74 96 92
30 38 25 30 18 27 30 52 92 96 100 97 99 96 100 99 100 99 95 81 73 66 58 48 47 27 21 17 14 13 18 24 16 64 51 70 18 11 11 26 54 52 90 99 97
40 48 43 34 14 17 32 53 81 100 100 100 100 98 95 100 97 98 97 89 90 70 63 55 46 36 30 23 19 15 16 16 55 64 65 78 50 9 13 18 38 37 60 94 71
24 46 58 59 39 15 16 31 44 70 95 98 97 99 97 99 100 99 100 97 96 94 75 56 50 46 39 29 24 20 17 18 30 37 36 71 52 8 12 27 26 30 33 48 48
6 21 49 56 54 43 25 16 18 23 44 80 82 99 99 98 98 98 98 97 97 96 94 90 58 46 47 44 38 28 22 18 17 35 86 64 54 15 11 13 24 27 27 33 42
7 9 40 54 53 50 44 33 19 15 22 35 64 62 98 99 98 99 98 100 99 93 89 84 96 70 83 65 45 39 33 23 19 31 90 78 38 14 11 11 11 12 20 26 32
8 8 11 16 20 17 16 23 29 18 17 18 20 29 57 83 87 97 98 98 93 71 64 66 66 85 96 69 50 40 37 35 30 26 41 86 25 15 15 12 11 12 12 19 33
6 6 6 6 7 7 7 7 9 12 14 15 13 13 15 35 50 67 79 83 78 66 56 53 56 55 52 75 92 75 47 37 34 33 33 41 25 26 22 20 16 13 12 12 14
12 15 16 15 9 7 7 7 7 7 7 9 10 14 14 13 12 14 17 28 40 45 43 43 44 47 48 46 44 44 52 54 48 38 36 46 30 29 28 26 23 21 17 15 13

GFSSW_500_rhum_075.txt.gz
RH
5 5 5 5 5 6 7 5 3 3 3 4 3 3 3 3 2 4 13 14 17 27 34 50 52 51 49 56 60 63 74 64 66 79 91 88 88 86 97 85 80 66 31 16 17
7 6 7 6 5 6 6 6 7 5 2 3 4 4 4 4 3 3 6 13 16 26 38 52 52 56 56 59 59 60 84 64 58 66 99 95 92 85 92 82 70 53 33 20 14
11 9 9 8 8 7 6 6 6 7 7 5 3 4 4 4 4 4 3 5 14 20 36 51 55 54 57 59 64 64 78 60 55 58 80 92 93 88 83 79 66 56 28 24 15
15 13 12 11 10 9 8 7 7 7 8 7 7 3 3 4 4 4 4 4 5 13 19 44 55 59 55 55 60 64 71 63 56 53 71 88 85 97 98 90 70 61 23 20 18
27 18 14 14 14 13 11 9 8 8 8 9 7 8 6 3 4 4 5 5 4 4 12 18 42 57 59 55 58 51 62 49 56 50 41 75 97 98 99 98 76 68 42 18 21
45 38 27 17 16 15 15 13 9 8 8 8 9 8 8 6 4 3 4 5 5 5 4 11 17 38 52 54 55 51 55 46 43 44 38 80 86 78 92 95 94 70 46 29 22
47 45 42 34 22 23 21 17 13 7 7 7 8 9 10 7 7 5 3 4 5 6 5 5 11 16 34 52 53 53 47 46 43 41 44 74 84 78 92 89 94 86 57 44 27
43 43 43 42 38 33 31 29 21 13 7 5 6 7 8 14 10 7 5 4 4 5 6 6 5 13 16 21 35 56 52 78 45 43 42 71 93 86 63 68 97 97 73 60 44
41 42 40 36 37 40 39 36 32 22 12 7 5 5 5 7 14 11 8 6 4 4 5 7 8 6 14 17 22 40 52 77 82 39 46 59 91 89 66 49 80 98 90 68 52
38 41 39 34 33 31 30 30 27 22 15 9 6 5 6 6 6 15 14 9 7 5 5 5 8 8 6 16 17 23 45 91 100 30 32 44 94 90 51 48 84 87 97 82 54
22 19 20 21 19 13 10 14 14 14 9 8 8 8 6 5 5 7 19 16 9 7 6 5 5 7 8 7 16 80 38 98 100 61 76 95 88 76 37 37 49 65 87 93 84
1 1 2 3 6 7 8 10 11 10 6 6 5 6 6 5 6 6 15 25 16 10 9 7 5 6 11 9 10 22 81 90 93 69 92 91 61 20 30 34 52 80 97 96 95
1 1 1 1 1 1 1 2 4 5 5 5 4 4 4 5 6 7 10 28 28 16 11 10 9 7 6 10 8 8 81 94 94 33 44 85 95 24 22 26 47 78 84 97 95
2 2 2 2 2 2 2 3 3 3 4 3 4 3 4 4 6 8 11 21 36 25 15 12 11 9 6 6 11 15 9 96 95 41 45 35 94 72 22 33 83 69 85 84 95
2 3 3 4 4 3 7 12 24 20 53 37 9 6 5 4 10 8 12 18 35 37 23 16 13 10 8 6 9 69 22 60 100 26 84 94 75 94 92 33 67 70 92 84 97
2 4 7 21 21 18 18 24 34 34 95 80 36 12 8 10 6 8 18 18 36 45 34 23 16 12 11 9 8 32 77 12 14 41 72 85 49 78 98 38 56 58 76 98 78
5 11 26 20 19 34 41 36 36 86 89 74 50 13 20 33 71 8 20 24 35 44 43 28 21 15 14 13 13 54 68 41 68 74 71 78 67 93 90 48 64 68 95 94 95
12 30 28 32 18 24 45 43 89 93 97 23 23 68 86 84 94 56 36 48 62 54 97 41 29 19 15 24 74 64 90 72 77 65 65 75 75 69 57 76 43 59 95 92 72
23 22 36 38 15 24 26 98 97 35 27 24 29 91 92 94 98 100 97 99 100 67 86 100 95 35 18 57 100 88 53 82 70 57 52 72 74 59 47 26 42 55 96 91 86
28 35 35 38 12 20 84 78 46 55 70 84 97 96 97 94 98 94 99 90 85 67 73 94 98 54 28 18 50 84 80 88 87 72 56 72 68 84 27 7 25 45 65 70 56
15 32 51 46 16 50 98 68 68 76 61 77 98 100 74 98 100 100 99 73 75 69 67 82 100 85 41 23 30 25 31 87 88 73 62 79 96 50 23 16 23 32 53 48 51
6 49 47 52 44 27 19 27 51 83 90 85 92 93 96 68 96 90 100 70 74 74 68 64 76 96 56 43 20 32 85 58 87 81 76 59 95 66 48 25 18 19 42 48 47
5 25 44 49 95 48 40 23 14 46 74 96 98 98 98 96 98 99 83 82 90 78 72 70 69 99 68 39 26 20 22 32 87 86 77 74 85 89 76 42 32 38 41 44 38
4 8 17 32 40 34 28 37 26 14 20 39 69 80 99 96 98 97 97 90 98 86 87 75 81 92 98 97 57 28 24 20 38 89 86 80 80 85 67 49 22 41 41 37 32
7 6 5 5 6 6 7 9 22 25 16 18 27 48 94 100 92 95 90 97 99 96 92 88 90 79 85 65 81 97 33 24 19 26 90 92 85 64 68 38 22 23 42 37 31
11 13 12 10 12 10 8 6 6 8 12 14 17 19 23 65 94 91 94 98 100 93 91 86 98 97 76 79 69 61 44 28 26 34 71 99 66 49 44 39 21 15 16 22 26
12 13 14 14 14 17 19 9 8 7 7 8 11 14 13 13 37 49 73 76 83 92 88 78 92 80 100 97 83 67 53 47 47 43 80 97 31 32 38 30 23 21 16 14 14

GFSSW_500_rhum_078.txt.gz
RH
6 6 5 5 4 5 7 6 3 2 3 3 3 3 2 2 2 9 15 34 36 40 34 41 54 59 54 47 58 62 75 60 67 75 85 96 93 87 95 88 78 77 34 15 16
10 9 9 8 7 5 5 6 8 6 2 3 3 3 3 3 3 3 9 11 19 28 34 45 54 60 66 59 56 85 74 55 57 66 88 85 88 88 86 80 74 62 27 17 16
16 14 12 11 11 8 7 6 6 8 7 3 3 3 4 4 3 3 4 10 13 17 27 40 53 57 64 61 57 92 98 62 51 54 80 91 90 79 90 78 60 65 27 18 15
30 26 21 14 12 11 10 9 7 7 9 8 5 3 3 4 3 4 3 3 10 16 24 35 53 57 58 61 61 70 78 67 52 58 67 89 90 90 85 73 61 50 23 17 16
50 48 44 37 25 14 12 11 10 8 8 9 8 7 3 3 3 4 4 4 4 12 20 36 50 59 57 58 62 92 94 71 58 48 51 70 82 98 93 74 68 57 25 19 14
48 47 45 45 42 35 20 15 14 11 9 8 9 9 7 5 3 4 4 5 4 4 12 20 43 55 61 72 63 66 72 59 52 56 40 57 85 83 92 86 68 58 34 24 19
44 42 42 43 45 41 35 23 19 16 14 9 8 8 9 5 6 4 4 4 5 4 4 12 19 35 48 54 54 65 78 59 44 44 42 47 74 76 92 76 84 70 48 29 20
31 36 34 36 41 41 40 33 27 24 21 15 9 7 8 7 9 7 4 4 4 5 5 4 10 14 27 43 55 55 51 83 48 42 40 41 76 86 71 67 96 88 73 48 34
26 28 33 31 35 39 37 36 38 34 30 24 15 8 6 8 11 10 8 5 5 5 5 6 4 13 14 17 34 56 54 53 97 74 40 39 62 99 92 51 87 91 97 61 53
20 19 22 26 31 34 34 35 35 35 36 33 20 12 8 5 7 11 12 10 6 5 5 6 7 6 12 14 18 28 47 96 78 94 83 33 55 96 90 65 73 67 76 85 60
4 2 2 2 6 12 17 20 22 27 29 27 21 16 12 7 6 6 11 16 10 6 5 6 6 6 6 12 20 33 45 94 72 78 88 56 33 45 94 64 45 54 51 72 73
1 1 1 1 1 1 3 8 8 11 13 17 16 11 14 8 7 6 6 11 15 11 8 5 5 6 9 7 15 30 91 94 95 97 98 63 79 62 83 48 38 36 43 61 94
1 1 1 1 1 1 1 1 2 4 6 10 7 9 6 7 7 8 7 14 21 18 10 8 6 6 9 10 9 19 51 79 86 95 97 98 93 78 30 14 27 32 40 68 97
2 2 2 2 2 2 2 3 3 2 5 6 9 5 6 4 5 7 10 21 26 24 15 10 9 7 6 10 13 10 39 88 87 97 73 83 94 82 54 21 11 30 41 67 73
2 3 4 8 8 6 10 13 12 16 61 63 18 10 7 4 10 7 12 20 33 34 22 14 11 8 7 9 17 18 59 95 80 96 79 38 81 83 79 91 45 39 42 77 74
5 7 21 22 16 18 24 23 34 32 99 98 76 35 11 6 8 14 12 15 30 43 33 22 14 11 8 7 16 53 77 89 99 96 78 83 93 91 58 85 90 89 64 84 74
9 12 28 28 15 32 44 43 57 77 99 98 83 41 16 17 93 66 17 16 32 37 43 33 29 16 11 8 7 31 68 82 87 99 91 89 96 83 70 72 97 70 56 68 76
12 16 25 35 15 26 48 48 98 96 88 90 88 59 74 83 94 96 30 28 33 45 93 91 51 38 14 10 18 46 79 85 75 79 76 78 70 69 59 34 47 84 46 60 79
15 19 30 36 12 20 44 86 81 97 97 77 41 90 85 87 87 95 92 92 62 59 100 93 80 72 25 13 13 87 81 90 83 68 62 63 82 77 58 62 48 67 37 29 75
9 20 36 33 12 60 51 79 87 40 50 40 97 98 96 94 87 91 93 100 99 97 64 90 85 98 69 23 30 90 76 85 97 89 72 72 60 64 56 52 44 26 24 23 50
6 26 44 44 30 93 61 70 54 74 48 35 76 77 93 98 89 97 91 94 89 87 64 92 82 95 98 40 25 46 94 79 95 90 84 95 86 83 75 44 40 29 12 20 27
7 25 42 47 44 76 54 14 35 38 59 60 58 64 99 77 56 60 87 94 72 92 62 100 92 96 98 66 34 83 94 83 65 74 79 83 94 58 44 48 56 26 9 6 22
6 20 29 36 77 100 38 38 14 20 49 64 69 89 47 63 92 68 97 75 85 93 81 66 87 86 98 95 53 38 35 79 92 96 74 95 82 69 89 94 72 55 15 7 15
4 50 6 8 10 14 11 13 36 16 16 51 62 69 97 78 78 47 50 88 48 42 57 63 97 96 90 91 91 48 26 32 48 87 90 92 88 67 81 83 74 77 35 11 12
9 8 8 10 11 9 6 6 7 33 18 13 18 55 90 94 86 97 84 54 70 69 72 62 85 95 97 98 92 91 47 35 34 40 93 96 78 77 92 82 71 73 64 21 20
10 10 10 13 18 16 9 7 6 6 11 14 12 15 56 76 97 92 90 84 88 93 78 79 78 74 67 83 84 67 100 96 50 46 100 72 87 53 46 62 76 60 57 30 27
10 11 11 13 17 21 17 9 8 8 6 6 11 12 11 12 50 84 93 96 83 85 89 98 94 84 74 84 98 71 62 70 49 41 98 81 71 34 54 61 72 60 46 34 35

GFSSW_500_rhum_084.txt.gz
RH
20 24 22 15 8 7 6 6 6 4 3 3 3 3 2 2 4 12 62 67 62 57 53 56 46 51 54 57 72 72 73 73 70 87 93 90 87 82 64 53 29 11 14 14 24
13 14 18 26 27 18 10 7 6 7 5 3 4 3 3 3 3 6 50 67 65 56 54 55 53 46 49 68 63 74 73 60 72 85 95 86 97 93 75 69 53 14 12 15 14
14 16 17 17 23 26 26 15 9 8 7 6 3 4 4 3 3 6 22 65 64 58 50 46 51 44 38 62 78 75 67 62 47 76 82 87 93 97 95 92 51 25 12 15 15
19 18 20 24 28 39 35 30 21 11 8 7 7 3 4 4 4 4 9 40 63 57 52 43 55 55 49 54 69 62 91 78 47 72 90 84 90 96 93 93 61 35 15 13 14
19 19 19 22 27 34 47 40 32 25 13 9 7 7 3 5 4 4 6 14 33 50 44 48 54 59 64 66 74 84 80 85 59 59 79 88 95 98 92 99 60 32 17 14 15
16 16 16 19 21 27 35 47 40 32 27 14 10 8 8 4 5 5 4 8 15 20 30 44 62 62 58 59 53 60 77 95 88 64 70 85 85 91 96 87 70 37 17 14 12
16 14 13 13 16 19 24 37 41 40 30 27 13 10 8 9 4 5 5 4 8 16 25 45 52 52 49 49 58 57 93 82 91 95 73 87 97 82 93 82 72 54 31 14 10
15 14 14 12 12 12 20 24 35 41 37 28 24 13 12 8 9 4 5 6 5 10 22 34 38 34 43 49 57 60 72 90 99 72 55 67 89 92 89 81 69 66 60 38 24
18 15 12 9 7 5 6 23 25 35 42 35 20 21 15 11 13 9 4 5 6 6 11 24 29 26 40 42 49 57 81 85 74 64 51 73 78 93 93 82 74 78 76 65 48
18 14 13 8 4 2 2 4 24 28 36 40 24 17 20 13 10 15 10 5 6 6 6 10 18 24 35 33 39 53 78 77 67 92 92 74 53 58 81 95 93 84 79 78 60
14 11 6 5 4 3 2 1 2 14 33 36 36 26 18 19 13 10 14 11 5 5 6 6 8 16 25 35 50 56 60 82 100 86 97 94 80 72 56 79 75 64 51 65 78
10 6 3 2 1 1 1 1 1 2 12 30 32 36 31 17 18 11 9 14 9 5 6 6 7 9 16 25 32 46 65 87 98 69 95 98 100 92 69 58 67 65 48 52 53
6 3 1 1 2 3 2 2 2 1 1 6 19 30 34 29 14 11 9 12 17 11 5 5 9 12 8 15 22 32 52 67 69 92 90 99 69 82 56 52 73 71 40 35 43
2 2 2 2 5 8 6 3 2 2 2 2 6 11 24 28 20 13 9 12 18 18 12 7 6 8 10 8 16 22 41 60 72 97 94 97 73 95 76 82 78 77 38 45 78
2 2 3 6 10 16 16 15 7 7 6 17 6 11 10 9 15 12 11 9 18 23 18 12 6 6 8 9 10 17 66 88 83 85 85 93 82 93 83 94 84 76 62 44 47
3 3 6 11 12 16 20 19 13 14 51 62 73 56 19 7 11 16 12 13 24 21 18 16 14 7 8 10 11 17 96 98 89 85 68 83 94 71 60 55 85 97 88 66 70
3 5 14 13 11 10 26 22 24 98 93 100 100 67 34 16 6 15 13 16 20 24 20 20 15 11 8 8 12 30 94 89 74 80 57 100 87 74 68 37 52 76 63 80 76
4 7 20 20 15 12 30 33 33 90 96 99 82 54 41 20 11 8 20 25 21 31 38 28 19 14 11 7 8 27 88 88 84 96 81 96 83 78 54 72 58 68 64 93 87
4 10 20 24 19 61 37 53 33 59 92 73 93 100 98 100 99 31 56 85 87 77 46 37 25 18 14 10 14 15 60 81 99 94 96 82 94 87 62 62 62 71 58 57 88
5 9 36 34 30 54 47 30 46 66 96 84 90 79 90 90 97 90 85 67 89 75 65 38 32 25 19 16 15 14 63 94 92 82 70 82 73 61 53 47 45 42 49 51 51
6 9 16 27 36 48 63 52 20 32 48 68 91 70 92 97 91 100 68 76 45 55 53 32 39 40 31 22 22 17 33 51 96 88 77 67 73 64 61 49 43 47 55 59 58
6 7 7 5 19 56 77 47 30 35 36 58 67 88 73 92 100 97 84 66 57 59 65 58 48 56 39 51 41 25 69 92 99 97 83 86 50 63 68 72 74 82 74 67 55
6 6 5 4 6 8 12 9 18 31 14 44 56 60 85 97 97 95 90 77 82 100 73 76 62 72 82 100 67 56 75 96 97 85 83 78 59 39 68 93 94 85 76 69 63
7 8 8 8 8 10 9 8 7 14 28 21 53 54 38 70 90 98 90 71 80 81 95 98 74 92 99 93 79 85 71 97 99 97 89 68 50 59 65 81 84 93 75 72 77
8 9 11 12 14 13 10 8 7 7 34 16 17 61 48 45 79 72 80 75 62 44 70 98 92 66 98 73 75 65 100 69 62 70 62 52 76 69 84 85 84 71 66 65 78
10 11 12 12 13 17 16 11 8 7 7 18 14 11 34 58 61 70 74 58 61 63 81 55 89 79 55 97 90 74 74 97 97 92 37 30 43 57 72 78 70 68 65 60 61
10 10 10 10 12 14 18 22 19 8 8 7 11 14 16 40 83 100 71 74 54 69 66 83 68 84 66 76 96 100 93 91 86 87 55 74 41 44 67 80 73 75 69 70 67

GFSSW_500_rhum_087.txt.gz
RH
9 10 12 17 20 18 11 5 4 5 4 3 3 3 3 2 3 7 31 66 71 64 60 55 45 37 48 62 68 96 82 73 73 79 87 75 92 74 64 25 17 14 14 16 19
6 7 9 10 13 17 22 20 10 6 6 5 3 3 4 3 3 6 44 66 71 63 62 60 45 50 69 61 76 94 81 69 78 85 87 84 98 86 67 63 44 17 14 16 22
6 8 10 11 12 15 21 23 23 16 8 6 6 3 4 4 4 6 36 68 73 64 58 49 44 48 60 63 64 72 77 59 63 84 81 94 98 84 84 90 44 16 15 15 17
9 10 11 12 13 14 17 32 31 25 19 10 7 6 3 5 4 7 25 68 73 67 58 51 53 56 68 66 69 66 81 58 47 77 81 80 88 100 97 81 58 24 15 17 16
9 12 13 13 13 13 15 21 32 34 24 18 10 8 6 4 4 5 11 51 72 68 60 54 53 69 60 69 72 75 80 77 60 90 87 89 85 97 88 79 66 29 15 16 17
10 11 13 13 12 13 14 15 22 32 35 20 18 10 8 5 5 5 7 23 60 63 59 57 53 64 69 79 75 86 70 79 64 82 75 99 94 96 88 80 69 33 14 15 18
16 14 13 13 13 13 12 13 15 26 38 34 17 14 10 8 4 6 6 11 25 52 54 59 54 56 55 68 71 86 69 74 78 50 74 85 98 97 90 87 76 50 21 15 19
22 19 18 17 15 12 12 11 12 18 32 41 27 12 12 9 10 4 6 7 14 26 42 49 48 46 49 59 65 61 78 67 74 86 84 93 96 98 97 81 88 63 46 22 15
31 24 21 18 16 14 10 8 8 16 28 38 43 17 14 12 15 10 5 7 8 15 26 31 38 41 40 51 62 67 82 73 79 97 92 89 94 97 96 88 76 72 71 51 23
37 28 20 16 14 13 7 3 4 6 22 32 44 40 17 13 12 12 7 6 7 8 14 23 27 24 31 45 57 68 87 80 90 89 81 94 65 55 95 90 84 85 77 85 56
40 25 15 12 11 8 7 4 3 2 8 28 38 42 35 14 13 10 12 5 6 7 7 12 19 20 37 51 59 69 72 73 73 96 87 99 92 56 83 94 84 81 55 73 68
35 13 6 5 2 2 2 2 2 2 1 10 33 39 39 20 13 14 11 10 5 6 7 8 11 30 38 50 61 69 74 65 80 87 90 99 94 81 70 78 81 60 53 53 72
15 6 4 2 2 3 3 2 2 2 2 2 13 36 36 29 14 13 16 12 12 6 6 7 11 14 27 36 57 63 72 60 68 68 82 92 96 96 92 77 80 84 81 51 52
5 3 2 2 5 7 7 6 3 2 2 2 3 11 27 25 20 14 17 25 18 12 7 7 10 11 10 21 38 47 83 92 69 63 79 89 89 91 82 66 72 95 79 50 50
2 3 3 6 10 13 15 16 13 8 5 12 3 11 12 10 17 19 12 22 23 20 12 8 8 9 10 9 20 33 74 98 72 73 62 64 65 88 61 65 74 92 86 38 70
3 3 7 9 11 10 22 15 18 14 29 58 32 18 21 10 11 19 14 13 35 27 21 14 8 7 10 14 10 33 48 99 77 58 55 52 60 61 90 99 76 87 95 79 53
4 4 13 18 14 11 25 23 22 55 53 80 69 90 33 16 8 12 17 14 16 32 25 18 12 8 9 12 12 16 40 92 95 66 48 50 73 70 87 83 78 89 92 90 88
4 5 13 17 17 24 27 36 37 50 80 75 68 65 40 22 24 32 25 21 16 28 34 23 16 12 8 8 14 11 25 58 93 79 34 53 54 76 72 58 37 68 70 84 84
5 6 12 17 24 38 36 39 25 40 86 68 75 65 34 27 28 61 56 37 38 22 32 32 21 17 13 10 10 14 19 67 93 84 52 44 36 69 78 66 45 57 67 58 98
5 7 9 17 23 47 40 34 33 45 99 86 85 86 84 50 61 100 99 69 30 23 35 34 30 22 18 15 13 19 31 67 88 86 60 48 36 71 75 63 64 75 78 67 65
4 8 10 16 30 60 69 66 39 23 89 84 93 98 97 98 100 98 100 81 48 41 41 34 44 33 27 22 21 17 37 71 81 66 70 66 44 56 82 66 73 74 76 69 48
4 7 7 9 14 9 26 28 20 32 31 59 70 93 100 100 95 83 84 77 69 75 70 47 50 49 50 44 34 27 29 78 90 85 76 67 53 64 74 63 59 50 56 77 54
6 7 7 6 5 6 7 7 6 18 31 25 52 78 88 90 88 94 81 96 74 80 97 60 57 72 64 66 66 44 29 34 77 80 70 68 49 48 54 71 60 55 52 61 59
8 9 10 7 11 12 9 7 6 8 34 15 34 44 69 65 86 89 98 91 83 82 96 99 70 85 95 99 86 57 28 24 38 74 62 52 53 44 26 34 53 64 67 82 82
9 9 10 11 13 16 17 9 7 6 22 32 13 47 53 41 48 67 92 92 86 99 100 90 84 93 97 98 90 67 47 27 26 30 39 31 51 66 39 33 31 56 93 96 92
10 9 10 11 12 15 19 18 12 8 6 22 17 16 52 57 43 46 96 100 93 92 94 96 98 75 92 97 78 100 64 42 31 28 27 33 78 79 43 37 43 48 62 77 86
10 10 9 9 10 13 16 20 23 20 7 6 14 12 10 28 41 37 50 59 74 81 64 43 45 44 64 73 92 99 90 62 48 39 45 47 64 84 67 47 50 73 86 82 74

GFSSW_500_rhum_093.txt.gz
RH
7 6 6 5 4 5 5 7 11 12 6 4 4 3 3 3 3 2 2 3 5 23 70 68 49 43 34 42 64 66 71 77 81 92 90 80 45 18 16 18 21 24 17 17 26
10 9 8 7 6 5 5 6 8 13 15 13 5 4 4 3 3 3 3 3 5 35 78 69 51 43 48 47 76 65 64 77 89 81 91 81 58 15 17 16 18 20 22 20 24
15 15 13 10 8 7 7 6 6 8 16 21 16 7 5 4 3 4 3 3 5 42 77 68 50 44 41 63 78 60 73 72 93 87 70 76 60 29 17 15 15 16 20 23 32
23 20 19 19 14 10 8 8 8 8 10 19 25 14 7 6 4 4 4 3 6 42 76 69 60 48 59 60 85 73 70 70 90 97 72 92 54 52 17 13 16 15 18 21 27
32 31 27 24 22 16 12 10 10 10 11 14 24 24 11 9 5 4 5 4 11 46 78 69 70 56 84 81 81 70 70 64 60 75 80 97 80 67 55 12 14 16 17 20 28
26 30 34 32 29 23 18 14 13 12 12 14 22 33 18 11 8 5 4 5 10 41 80 70 72 57 84 85 85 76 65 73 68 88 86 94 88 94 72 33 13 15 16 16 21
16 20 27 32 34 32 24 20 16 14 13 14 19 36 33 17 13 6 5 5 7 34 81 70 68 67 81 80 82 69 69 79 71 88 87 93 98 98 99 77 28 14 15 15 17
15 20 26 33 42 42 33 23 17 14 14 14 17 29 42 26 15 10 6 6 7 37 75 75 68 75 76 83 87 85 96 88 76 83 96 98 93 96 86 99 48 15 14 16 15
16 22 30 39 51 48 34 23 15 11 9 10 17 22 41 36 16 15 6 6 6 20 54 79 70 69 77 89 86 97 100 95 87 92 94 96 98 92 97 98 57 31 12 14 18
16 26 34 50 58 43 28 16 12 9 6 6 6 19 32 35 26 14 12 6 7 8 41 67 72 69 67 74 76 96 98 96 96 93 89 96 93 97 97 98 73 55 33 18 13
19 34 46 58 44 18 10 9 9 8 7 6 4 8 30 38 32 15 15 8 7 7 14 45 72 70 70 69 71 76 83 84 82 78 84 88 90 96 98 96 89 74 71 41 29
26 42 59 50 13 6 6 5 4 4 3 2 2 2 25 37 35 21 14 15 7 7 7 24 52 66 71 72 75 73 77 78 91 87 94 94 97 96 97 99 96 88 88 78 30
34 52 54 17 5 6 5 5 5 4 4 2 2 2 21 41 38 23 13 20 14 8 8 10 28 48 60 64 72 73 76 79 86 95 98 94 97 97 96 96 99 96 65 86 55
40 55 40 5 6 5 8 6 9 14 8 3 2 2 7 32 41 27 14 22 24 11 9 10 12 24 37 52 69 76 75 75 72 76 97 94 96 96 96 96 97 88 76 75 89
48 56 22 4 5 8 9 11 14 11 9 12 4 4 3 19 27 32 14 14 30 24 10 9 11 10 20 36 54 72 74 78 74 68 78 89 94 96 88 96 94 89 87 78 60
53 55 7 6 6 8 11 15 23 19 12 14 20 10 7 6 22 25 18 14 23 32 23 12 12 12 11 23 42 63 68 79 82 70 76 89 88 93 92 92 85 90 87 94 62
55 30 6 7 7 9 16 28 25 16 24 32 37 22 17 12 9 24 22 14 19 33 29 17 11 14 14 12 22 46 68 71 82 76 87 70 77 84 83 82 72 72 74 84 71
54 18 14 6 7 7 16 31 23 18 19 37 42 45 29 25 15 14 22 16 14 34 36 28 13 11 13 14 13 19 42 58 62 63 52 93 58 73 72 62 52 50 54 53 70
43 22 8 7 6 7 13 25 25 23 21 30 60 55 49 46 30 19 18 22 17 24 43 33 22 14 12 16 18 13 17 39 58 49 48 76 62 52 58 50 48 54 64 84 83
35 32 6 7 6 6 8 15 18 29 39 26 77 82 91 67 58 33 24 25 22 20 49 43 32 22 16 13 18 18 15 20 38 53 29 21 25 23 33 62 55 87 83 93 97
29 29 6 7 5 5 6 6 6 5 21 40 76 98 96 80 70 77 72 41 36 28 31 56 45 32 24 18 13 16 18 15 38 36 34 20 14 14 26 31 70 90 85 88 88
38 13 6 8 5 11 12 11 7 5 9 27 74 100 94 84 72 53 98 65 59 57 47 55 65 47 31 23 18 13 15 18 17 23 20 22 14 10 29 27 48 87 76 76 83
37 10 9 8 10 14 15 16 13 5 6 21 70 81 86 96 95 78 89 91 86 96 90 78 74 56 40 31 24 18 14 13 18 17 17 28 30 12 17 34 28 43 72 83 87
41 8 10 10 12 12 15 15 18 8 6 15 25 42 80 86 92 90 98 84 99 86 100 98 96 76 53 41 30 22 16 16 17 24 19 20 21 31 20 26 37 38 84 86 82
38 9 9 10 11 14 17 18 22 14 6 18 28 14 35 91 95 97 96 98 88 85 89 92 88 89 62 59 51 37 26 20 19 23 30 32 34 35 32 20 30 35 72 81 78
35 9 10 10 10 14 17 20 22 23 6 9 32 14 42 73 84 83 82 97 96 88 92 89 93 75 95 72 54 54 46 36 28 23 22 27 37 39 41 37 32 28 37 51 59
36 10 10 9 9 11 15 22 26 26 10 6 16 19 16 53 53 49 56 62 89 79 97 90 80 97 82 94 79 66 56 44 36 33 30 28 26 24 24 45 53 48 39 39 46

GFSSW_500_rhum_096.txt.gz
RH
9 8 7 7 6 6 5 5 5 7 9 8 4 3 3 2 3 4 3 2 3 6 18 56 52 42 36 47 64 71 78 83 94 92 98 64 27 15 22 22 23 20 20 17 21
16 14 13 12 9 8 7 6 5 5 9 13 11 5 4 3 2 3 3 3 2 6 18 53 52 42 38 55 70 69 73 82 77 89 78 29 14 16 17 18 24 24 22 16 19
18 19 19 18 16 14 10 8 7 6 6 9 16 14 7 4 3 3 3 3 2 5 15 51 53 44 47 56 69 68 71 84 87 91 72 55 14 14 15 29 16 22 31 22 20
10 13 14 18 19 19 18 13 9 8 7 7 11 21 16 8 5 4 3 3 3 4 25 66 57 51 44 62 64 74 66 75 92 93 81 56 22 14 14 14 17 16 24 28 26
7 7 8 12 16 21 21 20 17 11 9 9 10 15 25 16 8 5 4 3 3 6 47 70 60 54 50 74 66 74 62 66 86 88 76 62 45 25 16 14 14 20 18 25 35
7 7 9 10 13 17 20 23 23 18 12 11 11 13 22 23 14 6 4 4 4 7 54 71 63 54 58 85 78 67 69 67 76 76 94 92 76 66 24 14 13 17 21 20 35
9 8 8 10 12 17 22 29 30 24 18 14 13 15 18 24 19 12 5 5 4 7 52 72 66 60 72 98 86 80 67 67 67 76 92 98 90 83 49 12 13 14 16 18 19
10 10 10 11 13 18 26 35 39 32 22 17 14 16 20 29 24 17 8 5 5 9 36 73 67 64 71 97 96 78 73 73 79 89 97 93 95 92 68 39 13 13 15 14 18
11 10 11 12 16 26 39 50 47 34 20 14 12 15 21 33 31 19 15 6 6 13 38 77 72 67 66 95 92 96 79 92 94 97 98 98 97 97 98 92 21 12 13 16 15
12 11 11 15 29 44 52 39 21 13 9 7 6 7 20 30 35 25 16 9 6 11 30 68 77 70 72 90 94 97 97 98 91 96 86 96 98 95 95 91 35 16 13 17 16
12 11 13 24 47 49 28 16 15 11 8 6 5 5 11 28 35 35 18 15 6 8 24 47 75 73 75 86 93 86 87 96 98 100 96 96 96 96 98 96 54 37 15 13 15
12 12 17 40 48 22 14 7 5 6 5 4 3 3 3 19 35 35 22 18 11 7 13 37 60 75 76 74 88 94 96 96 97 94 91 97 97 94 97 96 70 60 47 33 16
12 15 26 52 25 12 7 4 5 7 9 4 3 2 2 9 33 37 24 18 20 8 8 23 43 63 77 78 80 91 99 96 96 97 98 97 93 94 98 97 83 65 74 62 36
12 20 35 42 12 10 4 4 6 11 10 8 4 2 2 5 31 38 27 19 24 18 8 12 24 41 62 81 83 86 84 86 85 84 97 95 95 95 96 97 94 80 72 87 43
13 25 40 23 12 6 4 5 10 12 23 17 7 5 2 3 19 35 27 18 25 27 14 9 11 25 44 58 92 96 82 83 77 92 73 95 95 95 97 97 98 92 59 79 84
14 28 36 16 10 6 4 5 13 16 28 19 21 7 6 3 14 27 32 20 17 26 27 12 9 16 24 39 59 91 89 80 77 78 68 87 86 90 89 96 96 78 73 57 63
17 34 33 20 8 6 4 11 24 19 22 33 29 22 9 8 6 21 27 24 18 24 31 22 11 11 16 22 36 64 86 84 84 99 100 96 86 70 96 96 90 94 92 91 87
20 36 36 11 7 5 5 12 22 20 17 22 35 28 21 15 21 9 22 23 17 21 51 30 18 10 12 16 20 34 67 91 89 100 100 66 68 72 74 79 81 87 83 73 75
25 38 33 7 7 5 5 7 8 12 17 20 26 37 37 24 22 16 12 28 21 19 48 41 34 17 11 16 15 20 43 71 95 95 100 88 62 66 70 69 70 57 59 89 95
33 37 27 6 7 4 6 6 6 6 5 13 25 36 98 58 49 71 40 67 97 20 28 44 41 25 14 13 18 19 23 75 63 100 97 98 94 71 65 72 59 49 83 97 97
43 40 19 6 7 5 8 8 8 6 5 7 22 46 67 81 81 100 99 45 30 26 23 47 44 47 22 12 14 18 17 22 83 89 86 90 98 61 60 60 53 41 86 95 100
48 37 10 8 6 9 11 10 11 10 5 6 27 84 84 79 65 100 100 100 35 34 37 46 76 89 31 23 13 13 19 17 28 80 90 95 97 74 24 29 33 44 85 92 97
48 37 7 8 9 12 11 14 16 15 5 6 23 75 94 90 75 68 81 98 73 50 56 65 61 100 74 33 21 16 12 28 70 75 91 90 81 77 23 21 37 41 83 94 95
48 25 8 9 10 11 16 17 17 18 7 7 21 25 84 86 90 84 73 72 93 93 69 82 83 97 94 66 63 22 15 12 16 74 79 92 95 90 37 19 39 35 57 90 95
54 19 9 9 10 12 16 17 18 21 9 6 29 30 14 28 54 93 95 98 94 88 97 96 72 94 81 89 63 44 24 18 14 56 84 92 95 95 47 19 34 45 45 60 92
47 14 10 10 10 12 16 18 19 23 13 6 30 30 14 33 46 76 96 98 86 97 99 98 93 63 60 68 70 60 42 28 24 17 50 61 97 60 25 23 20 32 46 54 82
51 12 9 9 10 12 15 18 20 24 20 6 12 25 12 31 54 80 81 92 99 98 78 92 72 98 84 70 69 62 55 50 34 32 44 42 47 19 22 36 29 19 24 41 56

GFSSW_500_rhum_102.txt.gz
RH
4 4 5 6 6 6 7 7 6 5 4 4 4 5 5 5 3 2 3 3 2 2 2 4 14 35 42 46 70 73 64 98 96 85 53 35 21 16 16 17 20 21 22 26 19
4 5 5 5 5 5 5 5 6 7 7 5 4 4 5 6 5 3 2 3 3 2 2 3 8 31 42 54 66 72 95 98 98 98 45 17 19 26 36 34 32 19 18 29 20
7 7 7 7 6 5 5 4 4 4 5 6 6 4 4 4 5 4 3 2 3 3 3 3 7 34 41 47 61 72 98 91 92 98 92 30 19 23 63 19 17 20 21 24 21
12 10 9 8 7 7 6 5 5 5 5 6 7 7 5 4 4 5 4 3 2 3 3 3 8 37 45 44 63 77 93 89 86 79 82 29 15 25 24 21 17 18 19 20 21
16 14 12 10 9 7 6 5 5 4 5 6 8 8 7 6 5 6 5 4 3 3 3 3 8 36 46 45 66 67 75 85 93 96 75 33 20 15 30 60 19 21 20 20 21
16 16 14 12 10 8 6 6 5 5 5 6 8 11 12 9 7 9 8 5 3 3 3 3 6 33 47 64 65 66 63 82 86 78 75 67 14 25 76 91 16 20 25 24 28
17 16 16 14 10 8 6 5 5 5 6 8 13 21 20 15 13 13 12 9 5 3 3 3 5 31 52 68 64 64 62 66 77 93 87 88 46 16 14 15 14 16 19 26 38
17 18 17 16 12 8 6 5 5 5 7 10 18 31 30 20 17 15 16 14 7 4 3 4 8 28 52 48 61 64 63 62 67 78 78 80 89 42 16 12 12 14 16 21 37
18 19 18 16 11 7 6 6 6 8 14 20 28 42 44 23 19 19 18 18 9 5 4 4 8 44 58 56 73 61 62 65 64 82 77 90 97 84 68 17 11 12 17 18 30
19 20 19 14 9 7 6 7 10 17 21 26 32 31 36 30 19 22 28 22 14 6 4 7 34 44 64 57 70 85 76 67 57 70 52 69 93 99 86 39 13 13 16 17 21
25 22 17 12 8 7 7 11 15 20 16 16 16 17 23 16 13 31 32 28 18 7 5 9 39 44 65 68 69 95 97 93 62 85 75 86 94 98 96 91 53 13 14 14 17
23 18 14 10 8 8 11 16 22 15 14 6 6 7 9 9 6 20 39 32 23 10 7 8 29 63 81 93 76 68 96 98 94 97 88 87 90 97 98 96 64 18 75 16 13
20 16 12 8 8 12 15 24 17 15 12 10 10 12 5 5 4 13 41 34 24 17 7 8 27 66 78 96 94 88 78 90 97 82 95 97 95 96 96 97 96 37 20 16 21
18 15 10 8 11 13 24 17 15 10 22 52 31 13 4 3 3 8 40 35 26 22 8 8 20 58 71 90 83 98 94 80 85 96 95 97 96 96 98 97 97 82 20 100 49
17 13 9 8 12 20 17 15 10 16 83 72 33 13 6 3 55 4 36 38 28 27 15 9 13 48 74 77 96 95 75 93 93 96 96 96 100 97 95 96 90 92 36 16 58
16 12 8 9 13 21 14 12 18 75 95 98 71 22 6 3 18 19 28 36 31 25 23 12 13 25 68 94 95 96 95 82 86 94 94 94 93 88 91 94 95 97 73 93 68
15 11 8 10 20 19 12 10 81 92 64 99 93 95 87 85 84 18 14 34 31 30 23 20 12 49 49 78 82 97 95 94 84 93 91 93 95 98 77 86 88 95 90 63 49
14 10 8 14 26 16 11 46 88 80 99 79 72 86 51 98 100 81 14 24 32 31 68 34 22 14 16 16 85 98 87 93 82 86 82 87 97 97 67 52 68 90 95 97 96
13 8 8 21 24 11 9 52 92 100 31 22 94 92 99 87 60 93 70 25 33 27 70 83 71 61 32 15 34 98 68 90 84 97 98 96 95 71 68 57 56 77 96 96 93
11 8 11 25 20 9 16 21 100 10 4 4 65 69 97 94 94 92 98 97 93 86 64 97 84 66 76 42 22 79 97 61 78 92 96 96 90 97 78 74 79 79 67 81 95
10 10 17 26 14 8 26 88 78 8 5 5 12 65 77 95 89 89 96 87 84 90 70 88 97 78 83 66 29 19 57 80 90 90 92 96 93 95 94 89 85 69 63 61 60
9 11 23 26 10 8 92 89 14 11 8 9 8 6 61 56 77 89 85 88 98 71 79 73 100 97 96 94 56 61 71 79 80 86 96 96 83 86 98 96 90 62 57 49 48
11 16 26 25 9 90 96 87 10 11 10 11 12 85 67 94 86 98 83 67 93 65 84 58 54 76 90 98 89 53 56 72 67 66 86 91 95 87 89 90 79 65 47 55 41
16 42 38 21 9 76 96 75 85 28 14 14 6 9 21 97 73 94 92 65 57 82 56 77 58 61 92 95 93 86 56 71 68 61 57 73 83 71 70 78 84 63 70 60 39
25 57 99 27 11 35 65 59 27 53 43 13 5 10 36 98 92 95 64 43 81 47 49 41 61 60 100 79 86 82 86 62 77 51 61 63 83 65 42 60 46 53 36 54 43
24 41 74 100 80 30 11 15 15 61 17 54 14 30 18 42 83 89 95 97 50 44 30 21 31 49 44 63 77 67 94 74 64 65 66 69 70 51 49 93 100 74 60 24 31
13 29 52 37 16 11 99 97 19 19 15 11 8 20 45 26 12 22 36 62 27 92 55 44 22 60 51 92 84 91 99 86 72 53 75 91 65 66 25 77 92 97 61 32 40

GFSSW_500_rhum_105.txt.gz
RH
5 5 5 5 5 4 4 4 4 5 6 5 4 4 4 5 4 2 2 2 3 2 2 3 5 11 38 38 38 59 77 88 92 50 43 56 97 17 18 20 19 22 23 18 16
8 8 8 7 6 5 5 4 4 4 4 5 6 5 4 4 5 4 3 2 2 3 2 2 4 8 29 41 51 70 97 95 98 82 77 37 35 22 16 15 19 19 26 22 17
13 12 10 9 8 7 6 5 5 4 3 4 4 5 6 4 4 5 4 3 2 3 3 2 3 5 21 37 47 58 97 95 90 74 49 46 26 24 86 32 23 17 19 22 19
14 14 14 13 11 9 7 6 5 4 4 4 4 3 4 4 5 5 5 4 3 2 3 3 3 6 24 40 40 60 78 92 98 92 97 39 23 25 29 15 17 16 16 18 20
16 16 15 15 14 12 8 6 5 4 4 4 4 4 4 4 4 6 6 4 4 2 3 3 3 4 13 37 43 72 69 84 96 99 99 68 26 20 26 18 16 16 18 18 18
15 16 15 16 16 14 11 7 6 5 4 4 4 4 4 6 6 8 7 7 5 3 3 3 3 5 11 42 36 77 84 74 96 91 97 49 54 31 22 22 19 18 20 21 22
15 14 15 17 17 15 12 8 6 5 4 4 4 4 5 8 10 12 10 10 7 4 3 3 3 4 15 40 51 97 76 56 87 100 93 74 51 14 65 29 18 15 18 24 31
17 15 15 15 18 16 12 8 6 5 4 4 4 5 6 14 21 21 17 13 14 6 4 3 3 4 13 22 50 54 62 75 73 98 88 98 78 40 58 64 27 14 14 19 26
15 16 18 18 20 17 12 7 6 5 4 5 6 8 11 21 24 31 21 16 17 10 5 4 4 7 17 43 52 65 67 78 90 89 94 98 98 92 39 13 11 13 15 16 20
9 14 21 21 17 12 9 7 5 5 7 9 10 12 14 20 29 32 24 20 19 15 7 4 4 9 23 41 41 61 78 93 98 94 97 93 100 97 83 71 18 12 13 15 16
11 16 19 18 13 9 7 6 6 8 7 10 11 13 14 16 23 27 18 31 24 20 8 6 5 11 42 65 65 59 81 100 92 98 97 99 100 85 87 76 39 11 10 12 17
18 22 18 15 11 8 7 4 6 8 13 13 12 12 10 10 14 18 16 29 33 24 12 7 5 19 60 92 93 61 86 99 87 83 99 97 98 89 97 98 96 81 29 19 12
25 22 17 13 10 8 6 7 9 11 12 13 15 20 12 12 8 10 10 38 38 29 16 8 10 33 68 88 96 76 76 82 93 93 100 97 98 94 94 97 100 93 62 9 10
26 20 16 12 9 8 7 11 16 16 14 19 21 12 9 8 5 4 7 42 39 29 21 9 14 26 67 80 94 97 99 88 84 80 95 96 97 95 98 98 91 100 85 44 12
24 19 15 11 8 8 10 15 17 22 49 41 44 38 10 6 8 3 11 38 37 29 26 12 13 28 64 81 78 93 96 90 77 81 87 97 97 97 98 97 90 100 91 69 11
23 19 14 10 8 10 16 16 28 52 47 96 87 23 38 5 9 26 8 35 37 29 26 15 14 63 78 85 95 82 98 98 97 74 88 95 97 97 99 96 93 92 92 77 30
22 19 13 10 9 14 18 17 41 37 86 95 71 72 64 84 46 19 29 26 35 34 26 21 12 38 80 82 98 75 96 95 98 89 78 96 90 97 92 92 89 92 83 61 50
22 16 12 8 10 20 14 35 95 52 99 99 60 88 100 98 92 84 54 19 33 34 34 37 26 17 56 70 88 58 78 94 96 90 85 90 85 97 86 68 53 71 79 90 31
20 14 11 8 14 23 12 22 54 75 56 31 18 93 93 88 96 98 87 39 22 32 39 80 86 73 47 43 34 64 64 71 79 78 92 96 97 96 76 63 51 83 87 89 82
18 16 10 16 18 16 11 41 43 61 7 4 4 83 92 95 94 97 97 87 63 86 52 78 74 84 68 70 37 88 78 69 81 54 83 94 97 94 80 78 72 63 71 96 95
18 14 14 16 22 13 19 76 75 62 6 6 6 10 91 73 82 74 94 99 99 100 94 86 70 89 75 85 54 81 37 88 86 57 92 88 94 97 94 76 95 77 72 65 93
21 12 15 18 20 11 24 60 81 56 11 8 8 7 10 84 18 94 100 91 90 100 75 70 80 83 84 90 82 58 42 71 77 60 81 94 92 95 90 90 68 79 84 71 81
19 14 19 23 19 12 69 99 93 91 24 11 12 11 10 43 76 34 74 94 79 87 70 59 73 83 94 95 98 78 47 34 46 43 70 99 87 99 90 83 72 65 71 76 80
22 16 30 31 17 63 85 79 100 69 18 14 13 7 10 56 74 49 55 96 77 93 97 92 78 85 93 90 77 85 81 54 39 20 30 91 92 82 78 72 70 81 76 71 65
35 19 20 22 14 20 20 92 76 62 62 15 12 5 41 72 48 58 69 84 64 63 76 79 90 83 96 77 97 84 84 76 64 24 50 60 66 64 55 50 55 86 93 90 88
57 17 25 44 43 64 29 36 21 25 10 19 9 11 33 43 17 44 37 88 92 65 65 56 77 88 70 69 66 85 98 79 72 28 72 62 72 63 69 52 66 77 67 64 75
62 21 51 61 64 84 68 53 63 20 16 13 6 10 16 13 14 11 14 17 36 43 40 31 30 65 67 59 59 98 86 96 85 69 81 87 72 68 51 31 52 94 80 59 64

GFSSW_500_rhum_108.txt.gz
RH
8 8 8 7 6 4 5 4 4 3 4 4 5 4 4 5 4 3 2 2 2 2 2 2 3 7 26 43 42 66 95 87 96 67 47 54 28 15 32 17 20 25 20 16 15
11 11 10 8 7 6 5 5 4 4 4 4 4 4 5 4 5 5 3 3 2 2 2 2 3 4 12 31 48 72 83 95 97 66 36 44 96 15 21 21 19 24 26 18 17
11 12 11 13 12 10 8 6 5 5 4 3 4 3 4 5 4 5 4 4 3 3 3 2 2 4 8 25 38 68 73 90 94 96 44 28 36 16 16 21 22 18 25 21 18
13 13 12 12 14 14 13 10 6 5 4 4 4 4 4 4 5 5 5 5 4 3 3 3 3 3 7 33 44 97 72 93 96 95 79 47 16 21 81 44 22 18 19 20 19
15 14 15 14 14 14 13 12 9 7 6 5 4 4 4 4 5 5 6 6 5 4 3 3 3 4 7 31 34 60 84 98 96 93 80 39 15 19 29 40 29 21 20 19 21
16 14 15 14 14 14 16 14 12 9 6 6 5 4 4 4 7 7 6 6 7 5 3 3 3 4 4 23 31 60 55 86 89 97 98 94 34 23 25 34 22 21 20 18 18
15 17 16 15 16 15 12 17 14 10 7 6 4 3 3 4 6 12 8 8 8 8 5 3 3 3 7 10 26 51 98 83 87 91 97 83 80 48 68 35 26 22 20 20 26
16 16 13 11 11 16 16 17 14 10 7 6 4 3 4 3 4 8 10 13 12 12 8 4 3 3 6 8 23 40 67 92 98 84 94 92 81 25 24 37 23 16 18 21 30
3 4 5 7 11 16 17 14 10 8 6 5 4 4 4 5 6 7 12 15 19 14 14 6 4 4 6 14 21 41 88 75 97 96 96 92 83 45 46 90 57 24 17 16 22
3 5 10 15 18 16 15 10 8 6 5 5 4 5 5 7 8 12 19 30 27 20 16 12 5 4 5 14 38 68 83 74 98 97 97 92 97 99 84 48 24 26 13 15 19
6 10 17 21 20 16 11 8 7 6 6 5 5 4 6 8 10 12 18 29 30 25 21 16 8 5 16 39 62 60 79 85 98 98 97 96 97 95 91 95 55 19 10 14 16
13 19 24 23 19 14 10 8 5 6 5 7 6 7 8 8 10 12 17 26 30 29 29 20 11 8 28 62 64 57 67 87 93 97 97 96 97 94 94 97 83 68 18 10 13
18 28 25 21 17 12 9 7 5 5 8 10 11 15 14 9 9 11 12 21 21 38 35 25 12 12 30 69 58 71 94 96 96 91 87 96 97 92 98 100 93 98 90 74 17
13 32 25 20 15 11 8 6 5 9 10 15 11 12 9 7 11 9 8 11 17 44 36 26 14 13 34 66 83 86 93 96 96 82 81 86 96 97 99 100 95 95 97 90 37
13 25 27 19 14 10 8 8 13 11 18 25 20 18 8 7 7 5 4 6 30 42 37 21 15 51 55 82 97 91 89 95 95 91 78 62 89 96 97 84 78 97 93 91 80
32 25 21 17 13 10 9 13 14 26 37 41 38 19 45 26 8 31 12 16 38 38 36 23 18 22 67 80 86 84 88 92 100 87 77 66 78 91 88 97 99 98 81 83 96
30 24 20 15 11 9 12 13 20 34 45 47 50 38 64 73 48 33 41 31 32 40 35 24 14 68 78 78 83 77 78 84 97 93 84 87 81 96 96 87 98 98 96 95 96
39 27 18 14 10 9 17 13 30 47 40 24 43 61 99 55 91 88 63 40 30 37 43 33 24 79 81 80 81 72 92 89 93 92 97 97 88 95 97 97 96 88 90 90 75
46 30 18 13 11 13 17 15 52 58 16 15 55 7 57 79 72 88 96 91 47 32 62 51 34 81 86 82 71 66 75 92 80 80 79 98 87 81 96 92 68 58 70 73 89
44 40 19 14 13 18 16 12 27 38 39 5 4 4 21 89 81 84 88 75 100 45 38 62 49 60 71 68 66 51 51 54 64 62 52 83 95 90 94 83 65 70 74 72 95
38 46 22 14 14 18 15 14 38 63 55 6 7 8 11 16 69 73 94 90 88 100 69 91 48 71 65 50 35 46 33 33 53 47 41 76 86 95 94 71 74 78 71 80 97
36 48 33 15 15 16 14 20 75 75 41 32 9 8 8 12 6 11 86 99 97 89 69 99 65 98 90 98 44 66 58 99 75 88 90 88 70 95 91 75 82 89 80 83 96
24 50 40 19 20 20 13 21 72 81 79 53 18 12 12 12 11 8 29 79 94 98 96 64 68 97 93 97 93 87 84 96 89 93 91 83 71 58 70 66 69 78 84 87 95
16 36 48 22 22 21 23 42 61 67 86 14 16 12 12 6 6 8 40 29 52 88 99 79 64 92 97 92 75 78 75 88 92 81 84 89 68 56 53 57 62 83 77 97 96
22 30 42 23 31 26 36 73 62 87 66 18 13 9 9 8 17 17 24 73 51 66 86 99 92 90 85 86 73 72 68 62 71 38 34 56 44 20 49 35 43 44 47 83 96
29 25 40 30 27 40 34 20 16 57 50 26 20 11 7 11 16 11 26 62 74 82 95 90 97 84 100 91 89 87 70 61 68 38 13 13 17 4 20 12 12 16 61 83 75
34 25 43 41 43 69 44 64 38 16 46 31 14 12 8 12 12 20 18 56 77 87 76 58 70 94 72 96 99 94 94 60 56 34 22 10 17 8 15 28 29 44 33 80 96

GFSSW_500_rhum_111.txt.gz
RH
10 9 8 7 6 5 5 4 4 3 3 4 5 4 4 5 5 3 2 2 2 2 2 2 2 3 4 11 46 38 77 99 94 87 44 29 26 21 30 20 24 28 19 16 29
10 10 10 10 9 7 7 6 5 4 4 4 4 4 5 4 4 5 4 3 3 2 2 2 3 3 4 12 44 39 78 97 96 90 83 32 28 20 30 21 24 26 21 18 15
11 12 11 11 11 12 12 10 7 5 4 4 4 4 4 4 5 4 4 4 4 3 3 3 3 3 4 21 34 61 100 79 94 89 69 37 57 17 16 20 24 27 23 21 20
14 13 13 13 12 13 13 12 11 9 6 5 4 4 4 4 5 5 5 4 4 4 4 3 3 4 4 7 23 68 79 94 96 89 66 44 69 21 17 21 24 22 24 24 24
16 18 15 14 14 14 14 14 14 12 9 6 5 5 4 4 6 5 5 6 6 5 4 3 3 3 4 3 10 44 72 93 92 96 91 80 78 45 31 33 24 19 22 24 26
12 12 12 13 15 14 14 13 12 15 12 9 6 6 5 4 6 7 6 6 6 6 5 4 3 3 4 4 4 46 43 80 77 96 99 88 52 24 36 27 32 19 22 23 28
11 14 15 14 13 10 10 12 12 13 14 11 8 7 5 4 5 6 5 7 7 8 8 5 4 4 4 5 3 25 38 56 98 95 98 96 73 62 24 94 38 19 23 25 30
2 2 2 3 4 5 9 14 16 15 12 8 7 6 5 4 4 4 4 7 10 11 9 6 5 4 4 4 4 22 40 96 97 98 98 96 96 69 72 77 29 19 25 28 24
2 2 2 3 5 9 12 14 14 13 10 8 7 5 4 4 4 5 4 4 9 13 13 9 7 6 4 4 6 32 35 67 81 91 91 98 97 96 70 62 70 21 19 29 37
2 3 4 5 10 16 19 18 13 10 8 7 6 5 5 5 5 6 7 7 10 10 16 17 13 10 6 5 10 44 44 94 98 95 97 97 96 84 76 75 53 40 17 25 32
3 4 6 12 17 22 20 16 11 9 7 6 5 4 4 4 4 5 8 9 9 15 18 21 20 15 10 6 26 32 46 77 99 84 96 97 97 96 87 94 86 23 26 17 29
4 4 6 15 21 22 20 13 10 8 6 5 4 4 6 7 6 7 8 10 13 21 25 25 25 18 10 7 29 30 69 73 93 94 97 97 97 97 97 95 86 58 21 13 20
5 5 6 17 26 22 16 12 10 7 6 6 6 8 8 8 8 6 7 9 14 21 29 30 28 20 12 10 23 23 50 64 82 95 93 92 97 97 98 98 99 86 51 16 18
7 8 11 14 24 21 15 11 9 6 6 11 14 15 10 6 6 6 8 11 12 17 22 34 34 21 13 15 30 32 74 72 95 93 95 82 86 97 97 95 92 100 100 88 88
11 16 29 24 21 18 14 11 8 8 11 20 20 12 7 4 5 7 10 8 10 12 21 36 35 20 14 24 59 46 90 98 86 87 92 78 78 94 97 99 88 100 98 93 100
24 28 32 24 19 14 13 9 8 9 18 24 18 12 10 14 10 19 16 5 8 13 37 40 28 18 23 61 59 69 79 96 80 82 80 66 59 67 89 82 98 98 96 100 87
24 34 39 26 17 14 10 9 10 11 22 30 17 15 14 39 37 37 41 11 20 32 40 39 20 31 48 83 64 58 80 79 69 90 84 76 54 63 58 81 90 96 90 100 94
10 29 44 28 17 12 10 12 11 18 36 26 11 8 17 35 45 42 48 32 25 39 45 36 34 72 86 87 79 80 60 58 68 93 88 96 81 84 74 77 92 91 100 97 90
25 29 36 32 18 13 13 12 11 21 30 32 8 5 7 40 48 66 77 36 24 35 59 55 77 66 80 89 78 85 69 83 70 80 76 77 99 84 74 91 96 97 98 91 80
22 29 36 34 18 14 13 13 13 15 35 40 5 3 4 36 77 71 75 86 53 37 55 59 72 70 79 78 69 74 97 89 82 73 72 66 93 99 88 84 98 96 98 95 99
14 19 30 40 31 15 14 14 13 15 44 57 19 5 4 4 35 81 83 77 73 93 49 76 54 73 80 66 70 46 59 67 66 51 54 49 71 90 94 88 96 95 91 74 83
15 13 22 44 33 19 17 16 15 16 33 44 21 10 6 7 5 7 15 22 72 99 37 82 64 73 80 86 70 60 68 73 53 37 34 40 48 73 89 87 81 83 92 78 74
23 12 17 39 40 22 20 18 16 24 42 62 60 13 8 12 10 8 8 13 85 99 83 75 80 70 74 75 66 88 77 38 48 49 31 28 31 48 57 72 79 89 93 88 75
25 13 23 38 41 24 22 18 15 24 45 59 12 7 8 7 7 14 13 34 12 58 93 100 84 97 88 83 67 80 83 59 68 72 42 9 38 32 77 54 60 63 66 95 92
24 20 28 35 35 30 30 24 24 52 50 35 22 9 8 6 11 16 12 14 37 35 27 90 78 89 96 96 90 80 76 72 50 71 16 28 36 54 45 70 70 58 51 78 95
33 27 32 30 36 40 37 27 34 33 23 25 16 14 8 6 12 12 15 13 57 87 48 51 93 54 81 98 96 96 56 49 39 68 42 35 38 58 29 38 62 55 35 47 56
40 31 38 38 36 43 45 42 44 44 49 39 60 65 9 8 12 12 12 15 50 98 98 74 59 94 86 80 97 71 68 52 45 40 43 23 18 35 44 34 31 54 48 47 50

GFSSW_500_rhum_114.txt.gz
RH
8 9 9 8 7 6 6 5 5 4 4 4 5 4 4 4 5 4 3 3 3 2 2 3 2 2 3 5 22 44 76 92 93 95 60 41 17 30 38 23 26 20 20 18 32
10 11 10 9 11 11 10 8 6 6 5 4 4 4 5 4 4 4 4 4 4 3 3 3 3 3 3 7 31 47 62 86 98 96 96 80 27 31 24 22 26 21 19 18 31
13 12 12 11 11 11 11 12 10 7 5 4 4 4 4 4 4 4 4 4 4 4 4 3 3 3 3 4 18 67 60 97 92 98 97 78 41 26 22 22 24 26 20 19 18
16 15 15 13 14 13 14 14 14 11 10 7 6 5 4 4 6 5 4 4 4 4 4 4 3 3 3 3 13 38 58 99 97 97 98 77 56 21 20 22 18 29 21 21 20
14 14 14 17 12 14 14 13 12 13 13 11 8 6 6 6 5 5 5 4 4 4 4 4 4 3 3 3 5 35 74 84 94 96 70 68 58 30 21 20 17 22 23 23 19
4 6 7 8 10 11 13 13 13 13 11 13 12 9 7 6 6 6 5 5 4 4 4 4 4 4 4 3 3 13 46 68 74 83 96 67 81 58 38 44 19 21 22 23 21
2 2 3 3 4 6 7 6 7 10 12 10 12 13 8 7 6 6 5 5 4 5 4 4 5 5 4 4 4 41 46 66 60 99 98 97 88 74 48 55 24 21 22 22 22
2 2 2 2 2 3 4 6 7 11 14 14 13 12 9 8 7 5 4 4 4 4 5 6 6 7 6 4 4 7 14 44 56 94 98 97 98 75 70 29 40 22 24 25 20
2 2 2 2 3 4 7 14 16 16 15 14 11 9 7 6 5 4 4 3 3 3 4 5 9 9 9 7 4 4 7 30 56 94 97 94 98 90 67 47 34 23 28 26 27
3 3 3 4 4 5 10 18 19 18 15 12 9 8 7 6 5 4 4 4 4 4 4 5 8 11 15 12 7 4 4 11 40 94 99 97 99 98 82 78 73 36 30 31 38
4 4 4 4 5 9 19 22 18 17 13 11 9 7 6 4 4 4 4 4 5 5 5 6 9 17 20 17 13 6 4 8 16 78 98 74 97 96 90 86 63 53 22 32 36
5 5 6 5 5 12 21 21 20 14 13 11 8 6 4 4 5 5 6 5 6 7 10 13 17 23 23 21 14 10 5 6 16 54 79 86 97 98 95 77 58 47 28 27 31
15 8 6 7 9 10 24 23 16 13 10 8 7 6 6 7 7 6 5 6 6 7 11 19 29 31 28 24 17 11 8 8 15 38 77 80 93 97 95 76 75 75 39 16 22
14 7 9 16 21 22 21 19 15 12 11 10 9 10 10 9 6 5 4 5 6 8 10 18 28 33 30 27 19 13 11 25 18 32 61 74 78 95 98 93 95 100 71 22 20
8 8 18 22 33 26 19 15 13 10 10 14 12 14 11 7 4 6 4 4 7 9 11 16 24 32 33 26 19 15 13 20 50 39 64 73 65 72 93 96 92 95 87 25 24
9 7 15 32 35 25 18 15 11 10 12 14 17 16 10 6 5 4 4 7 10 10 10 14 26 34 35 24 19 18 16 27 87 67 62 72 72 69 66 97 98 94 90 94 90
20 10 12 32 38 26 18 13 12 11 14 16 22 14 9 8 12 8 9 11 14 10 19 30 37 37 30 21 20 18 17 33 58 60 71 66 71 74 57 87 95 96 96 96 97
19 25 27 27 36 31 19 13 12 12 11 15 20 18 5 15 43 36 28 25 25 9 26 42 39 29 25 47 74 69 46 55 67 61 61 82 82 88 88 55 91 65 68 92 97
22 17 22 28 34 29 21 14 14 12 14 18 27 27 5 3 23 45 58 54 36 21 32 44 37 49 80 98 93 81 47 71 70 39 74 79 78 92 95 84 67 50 59 70 92
25 37 15 20 29 36 30 15 14 14 16 25 36 34 17 3 5 34 52 68 73 28 34 54 40 47 90 93 84 70 85 83 83 63 62 68 75 83 83 84 76 50 66 87 93
31 43 32 17 22 37 33 18 15 14 13 20 36 46 26 4 5 5 11 40 67 71 41 57 67 64 73 84 85 78 59 91 90 73 70 64 72 61 90 85 86 100 97 100 96
25 45 40 20 22 38 40 22 18 16 14 15 42 50 45 39 5 8 10 14 40 66 76 64 75 79 84 84 90 88 71 72 71 70 56 57 72 74 55 86 79 85 96 97 96
26 54 49 17 21 36 41 32 23 18 16 17 26 64 43 10 4 5 6 9 9 12 40 68 79 86 94 77 74 79 57 52 56 48 39 51 89 98 77 82 95 89 91 93 99
57 58 52 19 21 34 41 35 24 19 18 20 23 59 19 7 5 8 11 8 8 8 10 78 73 90 97 85 93 75 64 47 42 29 46 71 93 98 86 75 90 85 71 79 95
56 56 44 20 23 35 37 34 29 23 22 30 54 56 13 6 6 10 10 10 10 16 20 15 72 86 97 98 81 97 72 50 32 28 82 99 86 82 98 69 62 65 63 63 94
56 56 41 26 33 33 33 38 38 30 29 46 52 29 12 7 8 9 11 12 13 15 28 53 53 74 98 83 85 77 59 50 46 26 68 92 93 80 80 92 78 63 58 53 53
61 59 53 30 35 37 36 39 40 38 40 47 57 33 23 14 8 8 10 11 13 18 57 90 90 74 83 93 90 59 90 60 54 46 42 82 94 91 77 68 55 59 53 46 49

GFSSW_500_rhum_117.txt.gz
RH
8 9 9 10 10 9 8 7 6 5 5 4 4 4 4 4 4 5 4 3 3 3 3 2 2 2 3 5 16 39 66 91 93 83 63 46 23 31 27 20 18 17 15 26 41
11 11 11 10 10 11 11 10 10 8 6 5 4 4 3 4 4 4 4 4 4 4 3 3 3 2 3 5 24 51 53 82 94 97 98 79 46 32 20 20 21 18 18 22 33
14 14 14 12 12 11 11 11 11 10 9 7 6 5 4 4 4 4 4 4 4 4 4 4 3 3 2 3 33 91 75 58 96 98 95 93 59 30 20 21 20 19 20 18 40
14 15 15 14 16 13 13 12 12 12 11 10 8 7 6 5 6 5 5 4 4 4 4 4 4 4 3 3 8 71 68 49 89 92 96 93 49 26 23 22 18 17 21 21 18
3 4 5 5 7 12 9 10 13 13 12 11 11 9 8 6 6 6 5 5 4 4 4 5 4 4 4 3 4 22 46 64 84 90 91 66 53 24 19 24 18 16 18 22 32
2 2 2 3 4 5 6 8 9 11 11 12 11 12 11 8 8 8 7 6 5 5 4 4 5 5 4 4 4 5 23 40 62 74 93 76 63 68 27 26 20 16 16 21 23
2 2 2 2 2 2 2 2 3 3 4 5 7 9 11 12 10 9 8 6 5 5 5 5 5 6 6 5 4 4 12 30 52 60 98 92 84 80 55 51 31 18 16 17 23
2 3 3 3 3 3 2 2 2 3 4 8 11 13 12 10 10 10 8 7 4 4 4 5 7 8 7 7 5 16 38 43 49 57 88 96 96 84 65 61 55 24 18 16 21
3 3 3 3 4 4 4 3 4 6 8 11 13 14 12 10 8 8 7 6 4 4 4 4 6 10 9 9 8 6 6 9 8 22 74 91 97 96 69 58 55 33 19 20 17
4 4 5 5 5 4 4 5 6 9 14 16 16 13 11 9 8 7 6 5 4 4 4 4 6 7 10 10 10 8 6 4 16 13 45 75 88 98 92 85 37 52 19 20 22
4 7 12 14 7 6 5 5 8 13 16 16 14 12 10 8 6 5 4 4 4 3 4 4 6 8 8 10 11 12 9 6 4 6 22 87 94 97 92 94 78 53 19 18 25
5 16 24 17 8 7 8 7 15 17 17 15 13 11 10 7 5 5 5 5 5 4 5 6 7 8 8 13 17 18 16 12 7 5 8 50 83 94 90 96 75 81 96 55 18
6 23 17 7 11 16 23 20 19 21 16 14 12 11 9 7 7 7 6 5 5 5 6 7 9 9 8 10 18 20 18 16 12 9 8 13 40 70 92 90 89 75 67 29 20
7 22 9 7 14 22 29 25 19 17 16 14 12 12 12 11 9 7 5 4 4 4 4 6 8 12 12 14 18 25 21 19 15 13 10 23 34 65 85 94 90 74 45 22 21
8 22 15 6 18 32 28 25 16 15 15 16 15 13 11 10 7 5 5 4 4 4 5 7 9 12 15 22 27 27 25 21 18 18 22 19 31 49 58 83 95 72 56 29 21
7 20 22 16 13 33 35 20 16 14 12 14 16 15 12 8 6 5 4 4 3 4 8 9 10 11 16 25 32 31 26 32 49 49 39 48 37 43 46 62 98 88 86 82 64
7 15 18 26 24 25 32 28 16 12 15 15 16 16 12 9 6 5 5 5 6 9 12 12 12 13 18 30 34 32 23 28 42 44 57 68 60 55 42 38 79 96 97 90 29
8 14 20 24 23 25 26 25 17 13 12 12 13 17 17 10 6 6 8 8 11 12 16 15 17 16 25 33 32 27 22 23 33 38 50 41 69 73 61 42 32 75 96 98 45
8 15 21 28 28 19 28 28 23 14 13 14 13 16 22 13 5 8 17 17 15 15 18 19 22 26 35 33 32 42 35 48 41 39 51 51 84 83 87 73 60 64 98 95 91
8 13 17 33 38 21 24 34 28 18 14 13 12 15 26 29 12 4 18 32 22 27 25 26 35 37 36 36 48 41 57 67 60 65 52 58 99 90 90 92 97 76 94 95 90
8 10 16 21 41 34 21 38 34 23 16 16 15 17 35 23 21 18 5 8 10 19 41 29 43 48 39 64 87 90 68 69 74 66 76 71 99 96 81 99 95 90 53 88 85
8 8 14 20 44 40 21 30 38 32 22 18 15 20 45 39 46 47 10 3 3 4 16 51 45 63 57 57 86 91 90 77 72 95 78 80 97 95 91 86 94 97 100 78 79
8 8 11 26 54 43 22 27 39 38 29 20 17 22 35 42 20 5 4 4 3 4 5 28 59 56 83 83 72 80 85 80 71 78 87 73 95 96 96 94 95 94 92 97 99
8 8 14 55 63 47 23 28 40 36 32 23 20 27 47 52 36 7 3 5 7 7 7 8 18 56 79 99 96 77 80 75 78 70 61 60 82 97 96 95 91 92 78 84 89
12 11 31 62 64 38 25 30 37 36 36 26 25 48 67 52 25 6 5 8 8 9 9 12 13 11 72 89 97 83 86 66 63 61 55 47 53 99 96 96 92 92 71 78 90
53 27 40 66 60 36 26 33 36 35 40 30 30 60 64 42 24 7 6 9 11 11 12 13 20 33 28 82 91 75 92 92 70 69 60 43 46 96 96 96 94 86 73 67 76
93 79 61 68 61 37 34 37 35 36 38 33 36 56 60 63 28 7 7 8 9 10 14 15 24 72 68 48 72 91 83 93 89 81 70 58 55 96 89 96 93 92 83 74 61

GFSSW_500_rhum_123.txt.gz
RH
10 10 9 10 11 11 11 10 10 8 6 5 5 4 4 4 4 4 5 4 3 3 2 2 2 2 3 6 27 61 90 90 86 51 52 30 26 23 21 15 15 29 32 25 25
13 13 14 13 12 10 10 10 11 10 10 8 6 5 4 4 4 4 4 4 4 4 4 3 3 3 3 7 25 52 94 85 98 95 94 93 27 42 22 16 15 23 28 26 24
8 9 9 10 10 12 13 12 12 11 11 11 10 9 7 6 5 5 5 4 4 4 4 4 4 3 3 3 40 71 96 79 70 98 100 98 34 31 24 18 18 19 30 24 22
2 2 2 2 2 2 3 8 12 12 12 12 12 11 10 8 6 6 6 5 5 5 4 4 4 4 4 21 10 55 81 70 70 88 88 97 54 28 23 59 18 17 18 18 19
2 2 2 2 2 2 2 2 2 4 5 7 11 12 11 11 10 8 8 8 7 6 5 5 5 5 4 4 4 11 14 30 56 67 83 76 47 38 24 21 17 17 20 23 16
2 3 3 2 2 2 2 2 2 2 2 2 3 6 10 11 10 11 10 9 8 8 6 6 6 5 5 5 4 48 5 10 19 46 72 69 36 78 22 23 16 18 19 24 19
4 3 3 3 3 3 4 3 3 2 2 2 2 2 2 4 7 10 10 11 9 8 7 6 7 6 6 5 5 4 4 5 10 28 63 90 83 56 34 22 18 18 20 19 21
4 4 4 3 3 3 4 6 7 4 3 3 2 2 2 4 7 8 10 10 10 9 8 7 6 8 8 6 6 6 14 20 65 34 56 78 96 93 76 24 22 23 20 20 21
5 5 4 4 3 4 6 10 14 12 6 4 4 4 6 6 6 10 10 10 9 9 8 6 6 7 8 7 11 9 72 97 24 36 34 43 97 95 94 44 52 50 19 19 19
6 6 5 5 4 6 9 10 8 9 8 7 8 8 9 9 11 11 10 10 9 8 7 6 5 6 7 8 69 100 49 40 6 26 22 16 43 67 91 94 87 77 58 19 16
6 6 6 5 4 7 12 7 8 10 12 10 12 11 13 14 13 11 10 9 8 7 6 6 6 7 8 9 64 37 63 23 18 7 6 27 25 62 82 95 95 68 38 18 19
7 7 6 6 5 8 15 9 8 13 16 15 15 16 16 14 14 12 10 8 7 5 5 5 5 7 9 9 8 9 10 23 7 7 11 11 8 6 69 92 97 97 55 36 23
7 8 7 6 5 9 19 13 16 18 22 16 15 16 15 13 12 11 9 7 6 6 6 6 28 7 6 6 8 9 14 95 59 7 28 12 28 16 6 45 88 94 88 53 21
7 8 8 7 6 6 22 16 20 30 19 17 16 17 16 15 13 11 9 8 8 8 7 7 9 6 5 6 7 15 25 10 7 8 55 94 64 99 20 6 25 45 57 91 37
7 8 9 8 6 6 17 26 14 27 61 28 16 16 15 13 12 10 8 7 6 6 6 15 5 5 4 6 6 14 23 9 8 10 51 78 35 36 54 20 10 16 28 92 93
6 8 8 9 7 7 13 29 21 21 60 25 15 15 14 12 9 6 6 4 4 4 4 4 4 4 5 4 5 7 7 10 15 66 80 64 75 94 79 67 13 14 45 61 92
6 7 8 9 8 7 10 22 25 22 25 21 13 11 10 11 9 7 5 4 7 4 5 3 3 4 4 6 6 8 10 63 95 93 83 83 96 96 82 96 27 11 21 43 86
6 7 8 8 8 7 9 15 25 23 27 21 14 11 16 12 14 8 5 10 5 6 74 45 62 8 6 7 33 11 20 85 92 80 92 96 88 81 45 43 36 19 14 18 43
7 7 8 8 8 8 9 11 24 26 29 25 17 13 28 13 16 16 11 87 62 7 31 82 58 12 6 6 9 84 46 76 87 78 70 69 82 67 24 90 47 32 26 14 76
9 8 8 8 8 8 8 12 21 28 25 29 21 27 89 90 30 27 87 40 9 8 7 42 31 61 26 8 9 22 81 61 90 88 89 84 88 99 49 73 63 80 39 38 88
10 10 9 9 9 9 9 16 16 24 28 32 27 52 45 71 26 94 87 53 25 19 5 11 25 99 46 27 66 76 55 98 98 89 83 80 96 88 94 42 78 80 86 87 58
63 14 10 10 9 9 9 17 13 26 35 27 35 24 33 38 20 30 78 87 26 19 9 35 8 91 93 98 94 98 87 90 95 96 88 89 96 72 54 63 82 82 98 83 68
91 75 19 11 10 11 14 17 13 32 40 28 32 27 22 18 22 23 24 25 33 18 7 11 16 56 83 79 92 86 63 96 94 74 87 84 99 81 86 96 73 90 93 91 74
98 98 86 18 12 12 12 17 14 28 51 35 30 34 27 22 22 25 28 34 42 18 3 3 4 4 49 89 86 86 76 44 88 98 94 92 80 72 71 94 66 74 79 89 92
100 97 87 73 15 12 14 17 17 28 54 34 32 40 28 24 90 47 42 49 43 29 5 4 4 4 5 16 82 74 72 94 88 81 99 97 72 77 53 92 84 97 90 89 98
96 99 92 96 24 13 12 12 15 40 64 33 32 30 30 76 100 100 96 63 47 36 4 5 8 7 8 40 60 76 60 36 95 97 76 66 92 82 90 72 54 86 90 95 88
97 96 97 96 63 30 24 18 25 64 93 61 45 49 96 97 99 99 54 59 71 14 5 6 8 91 100 98 90 95 92 85 99 96 76 63 75 58 96 58 43 87 87 93 79